FW4143 Weather Reports


time (UTC)temp
C
wind
direction
speed
KPH
gust
KPH
rain 1hr
cm
rain 24hr
cm
rain mn
cm
humidity
%
barometer
mb
20260903180724 34 326 4.8 14.5 0.00 0.00 0.00 31 1013.5
20260903180603 34 318 4.8 14.5 0.00 0.00 0.00 31 1013.5
20260903180504 34 315 4.8 14.5 0.00 0.00 0.00 31 1013.5
20260903180403 34 314 6.4 11.3 0.00 0.00 0.00 31 1013.6
20260903180303 34 326 6.4 11.3 0.00 0.00 0.00 31 1013.6
20260903180203 34 340 6.4 11.3 0.00 0.00 0.00 31 1013.6
20260903180003 34 352 6.4 11.3 0.00 0.00 0.00 31 1013.6
20260903175903 34 358 6.4 11.3 0.00 0.00 0.00 31 1013.6
20260903175803 34 8 6.4 11.3 0.00 0.00 0.00 31 1013.7
20260903175703 34 15 6.4 11.3 0.00 0.00 0.00 31 1013.7
20260903175603 34 22 6.4 11.3 0.00 0.00 0.00 31 1013.7
20260903175524 34 23 6.4 11.3 0.00 0.00 0.00 31 1013.7
20260903175403 34 32 6.4 11.3 0.00 0.00 0.00 31 1013.7
20260903175306 34 33 4.8 11.3 0.00 0.00 0.00 30 1013.8
20260903175203 34 33 4.8 11.3 0.00 0.00 0.00 30 1013.8
20260903175103 34 27 4.8 11.3 0.00 0.00 0.00 30 1013.8
20260903175003 34 27 4.8 11.3 0.00 0.00 0.00 30 1013.9
20260903174903 34 28 4.8 11.3 0.00 0.00 0.00 30 1013.9
20260903174803 34 29 4.8 11.3 0.00 0.00 0.00 29 1013.9
20260903174703 35 31 4.8 9.7 0.00 0.00 0.00 29 1013.9
20260903174603 34 33 4.8 11.3 0.00 0.00 0.00 29 1014.0
20260903174524 34 37 6.4 14.5 0.00 0.00 0.00 29 1014.0
20260903174424 34 35 6.4 14.5 0.00 0.00 0.00 29 1014.0
20260903174324 34 28 6.4 14.5 0.00 0.00 0.00 29 1014.0
20260903174203 34 21 6.4 14.5 0.00 0.00 0.00 29 1014.0
20260903174103 34 21 6.4 14.5 0.00 0.00 0.00 29 1014.0
20260903174003 34 8 6.4 14.5 0.00 0.00 0.00 28 1014.0
20260903173903 34 4 6.4 14.5 0.00 0.00 0.00 29 1014.0
20260903173803 34 358 6.4 14.5 0.00 0.00 0.00 28 1014.0
20260903173724 34 350 8.0 14.5 0.00 0.00 0.00 28 1014.0
20260903173624 34 340 8.0 16.1 0.00 0.00 0.00 28 1014.0
20260903173503 34 327 6.4 16.1 0.00 0.00 0.00 27 1014.0
20260903173403 34 328 6.4 16.1 0.00 0.00 0.00 27 1014.1
20260903173303 34 337 6.4 16.1 0.00 0.00 0.00 27 1014.0
20260903173203 33 345 6.4 16.1 0.00 0.00 0.00 27 1014.0
20260903173124 33 350 6.4 16.1 0.00 0.00 0.00 27 1014.0
20260903173003 33 6 6.4 16.1 0.00 0.00 0.00 27 1014.1
20260903172903 33 14 6.4 16.1 0.00 0.00 0.00 27 1014.1
20260903172824 33 20 8.0 16.1 0.00 0.00 0.00 27 1014.0
20260903172703 33 29 8.0 17.7 0.00 0.00 0.00 27 1014.1
20260903172603 33 38 6.4 17.7 0.00 0.00 0.00 26 1014.1
20260903172503 33 41 8.0 17.7 0.00 0.00 0.00 26 1014.0
20260903172424 33 42 8.0 17.7 0.00 0.00 0.00 26 1014.0
20260903172306 33 45 8.0 17.7 0.00 0.00 0.00 26 1014.0
20260903172203 33 43 8.0 17.7 0.00 0.00 0.00 26 1014.0
20260903172124 33 44 8.0 17.7 0.00 0.00 0.00 26 1014.0
20260903172003 33 42 8.0 17.7 0.00 0.00 0.00 25 1014.0
20260903171924 33 41 8.0 17.7 0.00 0.00 0.00 25 1014.0
20260903171803 33 38 8.0 17.7 0.00 0.00 0.00 25 1014.0
20260903171703 33 37 6.4 17.7 0.00 0.00 0.00 25 1014.0
20260903171603 33 36 6.4 17.7 0.00 0.00 0.00 25 1014.0
20260903171524 33 36 6.4 17.7 0.00 0.00 0.00 24 1014.0
20260903171403 33 36 6.4 17.7 0.00 0.00 0.00 24 1014.0
20260903171303 33 41 6.4 17.7 0.00 0.00 0.00 24 1014.0
20260903171203 33 46 6.4 17.7 0.00 0.00 0.00 24 1014.0
20260903171103 33 48 6.4 16.1 0.00 0.00 0.00 23 1014.0
20260903171024 33 48 8.0 19.3 0.00 0.00 0.00 23 1014.0
20260903170903 32 51 8.0 20.9 0.00 0.00 0.00 23 1014.0
20260903170803 32 47 8.0 20.9 0.00 0.00 0.00 23 1014.0
20260903170703 32 50 8.0 20.9 0.00 0.00 0.00 23 1014.0
20260903170603 32 49 9.7 20.9 0.00 0.00 0.00 23 1014.0
20260903170503 32 48 9.7 20.9 0.00 0.00 0.00 23 1014.0
20260903170424 32 47 9.7 20.9 0.00 0.00 0.00 23 1014.0
20260903170303 32 44 9.7 20.9 0.00 0.00 0.00 23 1014.0
20260903170203 32 42 9.7 20.9 0.00 0.00 0.00 23 1014.0
20260903170103 33 39 9.7 20.9 0.00 0.00 0.00 23 1014.0
20260903170003 33 39 9.7 19.3 0.00 0.00 0.00 22 1014.0
20260903165903 32 37 9.7 19.3 0.00 0.00 0.00 22 1014.0
20260903165803 32 41 9.7 19.3 0.00 0.00 0.00 21 1014.0
20260903165703 32 38 9.7 19.3 0.00 0.00 0.00 21 1014.0
20260903165603 32 38 11.3 19.3 0.00 0.00 0.00 21 1014.0
20260903165503 32 38 11.3 22.5 0.00 0.00 0.00 21 1014.0
20260903165403 32 36 11.3 22.5 0.00 0.00 0.00 20 1014.0
20260903165305 32 35 12.9 22.5 0.00 0.00 0.00 21 1014.0
20260903165203 32 34 12.9 22.5 0.00 0.00 0.00 21 1014.0
20260903165103 32 33 12.9 22.5 0.00 0.00 0.00 21 1013.9
20260903165003 32 32 12.9 22.5 0.00 0.00 0.00 21 1014.0
20260903164924 32 30 12.9 22.5 0.00 0.00 0.00 21 1014.0
20260903164803 32 30 11.3 22.5 0.00 0.00 0.00 20 1013.9
20260903164703 32 30 11.3 22.5 0.00 0.00 0.00 21 1013.9
20260903164624 32 27 11.3 22.5 0.00 0.00 0.00 21 1014.0
20260903164503 32 28 11.3 22.5 0.00 0.00 0.00 20 1014.0
20260903164403 32 31 11.3 22.5 0.00 0.00 0.00 20 1013.9
20260903164303 32 33 9.7 20.9 0.00 0.00 0.00 19 1013.9
20260903164203 32 33 9.7 19.3 0.00 0.00 0.00 19 1013.9
20260903164103 32 35 9.7 19.3 0.00 0.00 0.00 18 1013.9
20260903164003 32 35 9.7 19.3 0.00 0.00 0.00 18 1014.0
20260903163903 32 37 9.7 19.3 0.00 0.00 0.00 17 1014.0
20260903163803 32 34 9.7 19.3 0.00 0.00 0.00 17 1014.0
20260903163703 32 36 9.7 19.3 0.00 0.00 0.00 16 1014.0
20260903163603 32 40 9.7 19.3 0.00 0.00 0.00 16 1014.0
20260903163503 32 40 9.7 24.1 0.00 0.00 0.00 15 1014.1
20260903163403 32 40 9.7 24.1 0.00 0.00 0.00 15 1014.1
20260903163303 32 40 9.7 24.1 0.00 0.00 0.00 14 1014.1
20260903163203 32 41 9.7 24.1 0.00 0.00 0.00 15 1014.1
20260903163124 32 39 9.7 24.1 0.00 0.00 0.00 14 1014.1
20260903163003 32 39 9.7 24.1 0.00 0.00 0.00 14 1014.1
20260903162905 32 43 11.3 24.1 0.00 0.00 0.00 14 1014.1
20260903162803 32 43 11.3 24.1 0.00 0.00 0.00 14 1014.1
20260903162703 32 43 12.9 24.1 0.00 0.00 0.00 14 1014.1
20260903162603 32 41 12.9 24.1 0.00 0.00 0.00 13 1014.1
20260903162503 32 41 12.9 22.5 0.00 0.00 0.00 12 1014.1
20260903162424 32 40 12.9 22.5 0.00 0.00 0.00 12 1014.1
20260903162306 32 37 12.9 22.5 0.00 0.00 0.00 12 1014.1
20260903162203 32 37 12.9 22.5 0.00 0.00 0.00 12 1014.0
20260903162103 32 37 12.9 22.5 0.00 0.00 0.00 13 1014.0
20260903162003 32 37 12.9 22.5 0.00 0.00 0.00 13 1014.0
20260903161903 32 36 12.9 22.5 0.00 0.00 0.00 13 1014.0
20260903161824 32 37 12.9 22.5 0.00 0.00 0.00 13 1014.1
20260903161703 32 37 12.9 22.5 0.00 0.00 0.00 13 1014.0
20260903161603 32 37 11.3 22.5 0.00 0.00 0.00 12 1014.0
20260903161503 32 35 11.3 22.5 0.00 0.00 0.00 10 1014.1
20260903161403 32 37 11.3 22.5 0.00 0.00 0.00 10 1014.0
20260903161324 32 38 11.3 22.5 0.00 0.00 0.00 10 1014.0
20260903161203 32 40 12.9 22.5 0.00 0.00 0.00 10 1014.0
20260903161103 32 41 11.3 22.5 0.00 0.00 0.00 10 1013.9
20260903161003 32 42 12.9 22.5 0.00 0.00 0.00 9 1014.0
20260903160903 32 45 12.9 22.5 0.00 0.00 0.00 8 1014.0
20260903160803 32 45 11.3 22.5 0.00 0.00 0.00 8 1013.9
20260903160703 32 47 12.9 22.5 0.00 0.00 0.00 8 1013.9
20260903160603 31 47 12.9 22.5 0.00 0.00 0.00 8 1013.9
20260903160524 31 48 12.9 22.5 0.00 0.00 0.00 6 1013.9
20260903160403 31 49 12.9 20.9 0.00 0.00 0.00 7 1013.9
20260903160303 31 47 11.3 29.0 0.00 0.00 0.00 7 1013.9
20260903160203 31 49 11.3 29.0 0.00 0.00 0.00 7 1014.0
20260903160003 31 47 12.9 29.0 0.00 0.00 0.00 8 1013.9
20260903155903 31 45 12.9 29.0 0.00 0.00 0.00 7 1013.9
20260903155803 31 42 14.5 33.8 0.00 0.00 0.00 6 1014.0
20260903155703 31 39 14.5 33.8 0.00 0.00 0.00 5 1014.0
20260903155603 31 39 14.5 33.8 0.00 0.00 0.00 4 1013.9
20260903155503 31 37 14.5 33.8 0.00 0.00 0.00 5 1013.9
20260903155403 31 35 14.5 33.8 0.00 0.00 0.00 5 1013.9
20260903155306 31 35 14.5 33.8 0.00 0.00 0.00 5 1013.9
20260903155203 31 33 14.5 33.8 0.00 0.00 0.00 5 1013.9
20260903155103 31 33 14.5 33.8 0.00 0.00 0.00 6 1013.9
20260903155024 31 31 14.5 33.8 0.00 0.00 0.00 5 1013.9
20260903154903 31 30 14.5 33.8 0.00 0.00 0.00 4 1013.8
20260903154824 31 33 12.9 30.6 0.00 0.00 0.00 2 1013.8
20260903154724 31 34 12.9 29.0 0.00 0.00 0.00 1 1013.8
20260903154603 31 33 12.9 29.0 0.00 0.00 0.00 1 1013.8
20260903154503 31 35 12.9 29.0 0.00 0.00 0.00 1 1013.9
20260903154403 31 37 12.9 29.0 0.00 0.00 0.00 1 1013.9
20260903154303 31 38 12.9 25.7 0.00 0.00 0.00 1 1013.9
20260903154224 31 38 12.9 25.7 0.00 0.00 0.00 1 1013.8
20260903154103 31 38 12.9 25.7 0.00 0.00 0.00 1 1013.8
20260903154003 31 37 12.9 24.1 0.00 0.00 0.00 1 1013.8
20260903153924 31 37 12.9 24.1 0.00 0.00 0.00 1 1013.8
20260903153803 31 37 12.9 24.1 0.00 0.00 0.00 1 1013.9
20260903153703 31 38 12.9 25.7 0.00 0.00 0.00 1 1013.8
20260903153603 31 39 12.9 25.7 0.00 0.00 0.00 1 1013.9
20260903153503 31 38 12.9 25.7 0.00 0.00 0.00 1 1013.9
20260903153403 30 38 14.5 25.7 0.00 0.00 0.00 1 1013.9
20260903153303 30 39 14.5 25.7 0.00 0.00 0.00 1 1013.9
20260903153224 30 39 14.5 25.7 0.00 0.00 0.00 1 1014.0
20260903153103 30 40 14.5 30.6 0.00 0.00 0.00 1 1014.0
20260903153003 30 42 14.5 30.6 0.00 0.00 0.00 1 1014.0
20260903152903 30 41 16.1 30.6 0.00 0.00 0.00 1 1014.0
20260903152803 30 41 14.5 30.6 0.00 0.00 0.00 1 1014.0
20260903152703 30 40 14.5 30.6 0.00 0.00 0.00 1 1014.0
20260903152603 30 40 14.5 30.6 0.00 0.00 0.00 1 1014.0
20260903152503 30 39 12.9 30.6 0.00 0.00 0.00 1 1014.0
20260903152403 30 36 12.9 30.6 0.00 0.00 0.00 1 1013.9
20260903152306 30 37 12.9 30.6 0.00 0.00 0.00 1 1014.0
20260903152203 30 39 12.9 30.6 0.00 0.00 0.00 1 1014.0
20260903152103 30 37 12.9 27.4 0.00 0.00 0.00 1 1014.0
20260903152003 30 37 12.9 27.4 0.00 0.00 0.00 1 1014.0
20260903151903 30 36 12.9 27.4 0.00 0.00 0.00 1 1014.0
20260903151803 30 35 12.9 27.4 0.00 0.00 0.00 1 1013.9
20260903151703 30 35 12.9 27.4 0.00 0.00 0.00 1 1013.9
20260903151603 30 35 12.9 27.4 0.00 0.00 0.00 1 1014.0
20260903151503 30 37 14.5 27.4 0.00 0.00 0.00 1 1014.0
20260903151403 30 37 14.5 27.4 0.00 0.00 0.00 1 1014.0
20260903151303 30 36 14.5 27.4 0.00 0.00 0.00 1 1013.9
20260903151203 30 35 14.5 24.1 0.00 0.00 0.00 1 1014.0
20260903151103 30 37 14.5 29.0 0.00 0.00 0.00 1 1014.0
20260903151003 30 36 14.5 29.0 0.00 0.00 0.00 1 1014.0
20260903150903 30 38 16.1 29.0 0.00 0.00 0.00 1 1014.0
20260903150803 30 40 16.1 29.0 0.00 0.00 0.00 1 1014.0
20260903150703 30 40 16.1 29.0 0.00 0.00 0.00 1 1014.0
20260903150603 30 40 14.5 29.0 0.00 0.00 0.00 1 1014.0
20260903150503 30 40 16.1 29.0 0.00 0.00 0.00 1 1014.1
20260903150403 30 43 14.5 29.0 0.00 0.00 0.00 1 1014.0
20260903150303 30 42 16.1 29.0 0.00 0.00 0.00 1 1014.0
20260903150203 30 42 14.5 29.0 0.00 0.00 0.00 1 1014.0
20260903150024 30 45 14.5 27.4 0.00 0.00 0.00 1 1014.0
20260903145903 30 45 14.5 25.7 0.00 0.00 0.00 1 1014.0
20260903145803 30 45 14.5 25.7 0.00 0.00 0.00 1 1014.0
20260903145703 30 47 14.5 25.7 0.00 0.00 0.00 1 1014.0
20260903145603 30 49 14.5 25.7 0.00 0.00 0.00 1 1014.1
20260903145503 30 49 14.5 25.7 0.00 0.00 0.00 1 1014.0
20260903145424 30 50 16.1 25.7 0.00 0.00 0.00 1 1014.0
20260903145305 30 52 16.1 25.7 0.00 0.00 0.00 1 1014.1
20260903145203 30 50 16.1 27.4 0.00 0.00 0.00 1 1014.0
20260903145103 30 49 16.1 27.4 0.00 0.00 0.00 1 1014.0
20260903145003 30 48 16.1 30.6 0.00 0.00 0.00 1 1014.1
20260903144903 30 48 16.1 30.6 0.00 0.00 0.00 1 1014.1
20260903144805 30 46 16.1 30.6 0.00 0.00 0.00 1 1014.0
20260903144703 30 44 16.1 30.6 0.00 0.00 0.00 1 1014.0
20260903144624 30 43 17.7 30.6 0.00 0.00 0.00 1 1014.0
20260903144503 30 42 16.1 30.6 0.00 0.00 0.00 1 1014.0
20260903144424 30 41 16.1 30.6 0.00 0.00 0.00 1 1014.0
20260903144303 30 41 16.1 30.6 0.00 0.00 0.00 1 1014.0
20260903144203 30 42 16.1 30.6 0.00 0.00 0.00 1 1014.0
20260903144103 30 42 16.1 30.6 0.00 0.00 0.00 1 1014.0
20260903144003 30 43 14.5 29.0 0.00 0.00 0.00 1 1014.0
20260903143903 30 44 16.1 29.0 0.00 0.00 0.00 1 1014.0
20260903143803 30 44 14.5 29.0 0.00 0.00 0.00 1 1014.0
20260903143703 30 44 14.5 29.0 0.00 0.00 0.00 1 1014.0
20260903143603 30 45 14.5 29.0 0.00 0.00 0.00 1 1014.0
20260903143503 30 43 16.1 33.8 0.00 0.00 0.00 1 1013.9
20260903143403 30 40 16.1 33.8 0.00 0.00 0.00 1 1013.9
20260903143303 30 41 16.1 33.8 0.00 0.00 0.00 1 1013.9
20260903143203 29 40 16.1 33.8 0.00 0.00 0.00 1 1013.9
20260903143103 29 40 16.1 33.8 0.00 0.00 0.00 1 1013.9
20260903143003 29 40 14.5 33.8 0.00 0.00 0.00 1 1013.8
20260903142903 29 40 14.5 33.8 0.00 0.00 0.00 1 1013.8
20260903142803 29 41 14.5 33.8 0.00 0.00 0.00 1 1013.9
20260903142703 29 41 12.9 33.8 0.00 0.00 0.00 1 1013.9
20260903142603 29 41 12.9 33.8 0.00 0.00 0.00 1 1013.9
20260903142503 29 43 12.9 29.0 0.00 0.00 0.00 1 1013.8
20260903142403 29 46 12.9 24.1 0.00 0.00 0.00 1 1013.9
20260903142306 29 43 12.9 27.4 0.00 0.00 0.00 1 1013.9
20260903142203 29 44 12.9 27.4 0.00 0.00 0.00 1 1013.9
20260903142103 29 44 12.9 27.4 0.00 0.00 0.00 1 1013.8
20260903142003 29 44 12.9 27.4 0.00 0.00 0.00 1 1013.8
20260903141903 29 44 12.9 27.4 0.00 0.00 0.00 1 1013.8
20260903141803 28 42 14.5 27.4 0.00 0.00 0.00 1 1013.8
20260903141703 28 44 14.5 27.4 0.00 0.00 0.00 1 1013.8
20260903141603 28 45 12.9 27.4 0.00 0.00 0.00 1 1013.8
20260903141503 28 45 14.5 27.4 0.00 0.00 0.00 1 1013.8
20260903141403 28 46 12.9 27.4 0.00 0.00 0.00 1 1013.8
20260903141303 28 47 12.9 27.4 0.00 0.00 0.00 1 1013.8
20260903141203 28 46 12.9 24.1 0.00 0.00 0.00 1 1013.8
20260903141124 28 46 12.9 24.1 0.00 0.00 0.00 1 1013.8
20260903141024 28 45 12.9 24.1 0.00 0.00 0.00 1 1013.8
20260903140903 28 45 12.9 24.1 0.00 0.00 0.00 1 1013.8
20260903140803 28 47 12.9 24.1 0.00 0.00 0.00 1 1013.9
20260903140703 28 46 14.5 24.1 0.00 0.00 0.00 1 1013.8
20260903140603 28 45 14.5 25.7 0.00 0.00 0.00 1 1013.8
20260903140503 28 44 16.1 29.0 0.00 0.00 0.00 1 1013.9
20260903140403 28 46 16.1 30.6 0.00 0.00 0.00 1 1013.9
20260903140303 28 47 16.1 30.6 0.00 0.00 0.00 1 1013.9
20260903140203 28 47 16.1 30.6 0.00 0.00 0.00 1 1013.9
20260903140003 28 46 16.1 30.6 0.00 0.00 0.00 1 1013.9
20260903135903 28 46 16.1 30.6 0.00 0.00 0.00 1 1013.8
20260903135803 28 45 16.1 30.6 0.00 0.00 0.00 1 1013.9
20260903135703 28 45 16.1 30.6 0.00 0.00 0.00 1 1013.8
20260903135603 28 46 17.7 30.6 0.00 0.00 0.00 1 1013.8
20260903135524 28 46 16.1 30.6 0.00 0.00 0.00 1 1013.8
20260903135424 28 45 16.1 30.6 0.00 0.00 0.00 1 1013.8
20260903135306 28 43 16.1 30.6 0.00 0.00 0.00 1 1013.9
20260903135203 28 44 16.1 30.6 0.00 0.00 0.00 1 1013.9
20260903135103 28 44 17.7 30.6 0.00 0.00 0.00 1 1013.9
20260903135003 28 44 16.1 30.6 0.00 0.00 0.00 1 1013.9
20260903134903 28 44 17.7 30.6 0.00 0.00 0.00 1 1013.9
20260903134724 28 43 17.7 30.6 0.00 0.00 0.00 1 1014.0
20260903134624 28 42 16.1 30.6 0.00 0.00 0.00 1 1013.9
20260903134503 28 43 16.1 29.0 0.00 0.00 0.00 1 1013.8
20260903134403 28 42 16.1 29.0 0.00 0.00 0.00 1 1013.9
20260903134303 28 39 16.1 29.0 0.00 0.00 0.00 1 1013.9
20260903134203 28 39 16.1 29.0 0.00 0.00 0.00 1 1013.9
20260903134124 28 39 16.1 29.0 0.00 0.00 0.00 1 1013.8
20260903134003 28 40 14.5 29.0 0.00 0.00 0.00 1 1013.8
20260903133903 28 39 14.5 29.0 0.00 0.00 0.00 1 1013.8
20260903133824 28 39 14.5 25.7 0.00 0.00 0.00 1 1013.8
20260903133726 28 38 12.9 25.7 0.00 0.00 0.00 1 1013.9
20260903133603 28 38 12.9 25.7 0.00 0.00 0.00 1 1013.9
20260903133503 28 38 11.3 25.7 0.00 0.00 0.00 1 1013.9
20260903133403 28 41 11.3 25.7 0.00 0.00 0.00 1 1013.9
20260903133303 27 44 11.3 25.7 0.00 0.00 0.00 1 1013.8
20260903133203 27 45 9.7 24.1 0.00 0.00 0.00 1 1013.9
20260903133103 27 44 9.7 24.1 0.00 0.00 0.00 1 1013.9
20260903133003 27 44 9.7 24.1 0.00 0.00 0.00 1 1013.9
20260903132903 27 45 9.7 24.1 0.00 0.00 0.00 1 1013.9
20260903132803 27 45 8.0 20.9 0.00 0.00 0.00 1 1013.9
20260903132703 27 46 9.7 20.9 0.00 0.00 0.00 1 1013.9
20260903132603 27 47 9.7 20.9 0.00 0.00 0.00 1 1013.9
20260903132503 27 48 9.7 20.9 0.00 0.00 0.00 1 1014.0
20260903132403 27 46 9.7 22.5 0.00 0.00 0.00 1 1014.0
20260903132324 27 46 9.7 22.5 0.00 0.00 0.00 1 1014.0
20260903132203 27 45 9.7 22.5 0.00 0.00 0.00 1 1013.9
20260903132124 27 46 9.7 22.5 0.00 0.00 0.00 1 1013.9
20260903132003 27 45 9.7 22.5 0.00 0.00 0.00 1 1014.0
20260903131903 27 44 11.3 22.5 0.00 0.00 0.00 1 1014.0
20260903131803 27 43 11.3 22.5 0.00 0.00 0.00 1 1013.9
20260903131703 27 43 11.3 22.5 0.00 0.00 0.00 1 1014.0
20260903131603 27 41 11.3 22.5 0.00 0.00 0.00 1 1014.0
20260903131503 27 40 11.3 22.5 0.00 0.00 0.00 1 1014.0
20260903131403 27 38 11.3 22.5 0.00 0.00 0.00 1 1014.0
20260903131303 27 38 9.7 22.5 0.00 0.00 0.00 1 1014.0
20260903131203 27 37 11.3 22.5 0.00 0.00 0.00 1 1014.0
20260903131103 27 39 11.3 22.5 0.00 0.00 0.00 1 1014.0
20260903131003 27 39 11.3 24.1 0.00 0.00 0.00 1 1014.0
20260903130903 27 38 11.3 24.1 0.00 0.00 0.00 1 1014.0
20260903130803 27 40 11.3 24.1 0.00 0.00 0.00 1 1014.0
20260903130724 27 39 11.3 24.1 0.00 0.00 0.00 1 1014.0
20260903130603 27 39 11.3 24.1 0.00 0.00 0.00 1 1014.0
20260903130503 27 38 11.3 24.1 0.00 0.00 0.00 1 1014.0
20260903130403 27 39 11.3 24.1 0.00 0.00 0.00 1 1014.0
20260903130303 27 39 11.3 24.1 0.00 0.00 0.00 1 1013.9
20260903130203 27 40 11.3 24.1 0.00 0.00 0.00 1 1014.0
20260903130003 27 39 11.3 22.5 0.00 0.00 0.00 1 1014.0
20260903125903 27 38 11.3 22.5 0.00 0.00 0.00 1 1014.0
20260903125824 27 39 11.3 22.5 0.00 0.00 0.00 1 1013.9
20260903125724 27 39 11.3 20.9 0.00 0.00 0.00 1 1014.0
20260903125603 27 40 11.3 20.9 0.00 0.00 0.00 1 1014.0
20260903125503 27 42 11.3 20.9 0.00 0.00 0.00 1 1013.9
20260903125403 27 42 11.3 20.9 0.00 0.00 0.00 1 1013.9
20260903125324 27 42 11.3 20.9 0.00 0.00 0.00 1 1013.9
20260903125203 27 40 11.3 20.9 0.00 0.00 0.00 1 1013.9
20260903125103 27 40 11.3 20.9 0.00 0.00 0.00 1 1013.9
20260903125003 27 39 11.3 20.9 0.00 0.00 0.00 1 1013.9
20260903124903 27 40 11.3 20.9 0.00 0.00 0.00 1 1013.8
20260903124803 27 41 9.7 20.9 0.00 0.00 0.00 1 1013.8
20260903124703 27 43 11.3 20.9 0.00 0.00 0.00 1 1013.8
20260903124624 27 42 11.3 20.9 0.00 0.00 0.00 1 1013.8
20260903124503 27 41 9.7 20.9 0.00 0.00 0.00 1 1013.8
20260903124403 27 42 9.7 20.9 0.00 0.00 0.00 1 1013.8
20260903124303 27 44 11.3 20.9 0.00 0.00 0.00 1 1013.8
20260903124203 27 43 11.3 20.9 0.00 0.00 0.00 1 1013.8
20260903124124 27 44 11.3 20.9 0.00 0.00 0.00 1 1013.8
20260903124003 27 45 11.3 20.9 0.00 0.00 0.00 1 1013.8
20260903123903 27 43 11.3 20.9 0.00 0.00 0.00 1 1013.8
20260903123803 27 42 11.3 20.9 0.00 0.00 0.00 1 1013.8
20260903123703 27 41 11.3 20.9 0.00 0.00 0.00 1 1013.8
20260903123624 27 42 11.3 20.9 0.00 0.00 0.00 1 1013.8
20260903123503 27 42 11.3 20.9 0.00 0.00 0.00 1 1013.8
20260903123403 27 42 11.3 20.9 0.00 0.00 0.00 1 1013.7
20260903123324 27 41 11.3 22.5 0.00 0.00 0.00 1 1013.7
20260903123203 27 40 11.3 22.5 0.00 0.00 0.00 1 1013.7
20260903123124 27 41 11.3 22.5 0.00 0.00 0.00 1 1013.7
20260903123003 27 40 11.3 22.5 0.00 0.00 0.00 1 1013.7
20260903122903 27 41 11.3 22.5 0.00 0.00 0.00 1 1013.7
20260903122824 27 41 11.3 22.5 0.00 0.00 0.00 1 1013.8
20260903122703 27 40 11.3 22.5 0.00 0.00 0.00 1 1013.6
20260903122603 27 40 11.3 22.5 0.00 0.00 0.00 1 1013.7
20260903122524 27 39 11.3 22.5 0.00 0.00 0.00 1 1013.6
20260903122403 27 39 11.3 22.5 0.00 0.00 0.00 1 1013.7
20260903122305 27 40 11.3 20.9 0.00 0.00 0.00 1 1013.6
20260903122203 27 40 11.3 20.9 0.00 0.00 0.00 1 1013.6
20260903122103 27 40 11.3 20.9 0.00 0.00 0.00 1 1013.6
20260903122003 27 42 11.3 20.9 0.00 0.00 0.00 1 1013.6
20260903121903 27 44 11.3 20.9 0.00 0.00 0.00 1 1013.6
20260903121803 27 44 11.3 22.5 0.00 0.00 0.00 1 1013.6
20260903121703 27 44 11.3 22.5 0.00 0.00 0.00 1 1013.6
20260903121624 27 43 11.3 22.5 0.00 0.00 0.00 1 1013.6
20260903121524 27 44 9.7 22.5 0.00 0.00 0.00 1 1013.6
20260903121403 27 44 9.7 22.5 0.00 0.00 0.00 1 1013.7
20260903121324 26 45 9.7 22.5 0.00 0.00 0.00 1 1013.6
20260903121203 26 44 9.7 22.5 0.00 0.00 0.00 1 1013.6
20260903121103 26 43 9.7 22.5 0.00 0.00 0.00 1 1013.6
20260903121003 26 42 8.0 22.5 0.00 0.00 0.00 1 1013.6
20260903120903 26 41 8.0 22.5 0.00 0.00 0.00 1 1013.6
20260903120803 26 40 8.0 17.7 0.00 0.00 0.00 1 1013.6
20260903120703 26 40 8.0 17.7 0.00 0.00 0.00 1 1013.6
20260903120603 26 39 8.0 16.1 0.00 0.00 0.00 1 1013.6
20260903120503 26 37 9.7 19.3 0.00 0.00 0.00 1 1013.7
20260903120403 26 39 9.7 19.3 0.00 0.00 0.00 1 1013.7
20260903120303 26 39 8.0 19.3 0.00 0.00 0.00 1 1013.6
20260903120224 26 38 8.0 19.3 0.00 0.00 0.00 1 1013.6
20260903120003 26 39 9.7 19.3 0.00 0.00 0.00 1 1013.6
20260903115903 26 39 9.7 19.3 0.00 0.00 0.00 1 1013.5
20260903115803 26 40 9.7 19.3 0.00 0.00 0.00 1 1013.5
20260903115703 26 40 9.7 19.3 0.00 0.00 0.00 1 1013.5
20260903115603 26 42 8.0 19.3 0.00 0.00 0.00 1 1013.5
20260903115524 26 43 8.0 19.3 0.00 0.00 0.00 1 1013.5
20260903115403 26 43 8.0 16.1 0.00 0.00 0.00 1 1013.5
20260903115324 26 44 8.0 16.1 0.00 0.00 0.00 1 1013.5
20260903115203 26 44 8.0 16.1 0.00 0.00 0.00 1 1013.6
20260903115103 26 46 6.4 16.1 0.00 0.00 0.00 1 1013.5
20260903115003 26 47 6.4 16.1 0.00 0.00 0.00 1 1013.5
20260903114903 26 48 6.4 12.9 0.00 0.00 0.00 1 1013.5
20260903114803 26 50 6.4 12.9 0.00 0.00 0.00 1 1013.5
20260903114703 26 51 6.4 12.9 0.00 0.00 0.00 1 1013.6
20260903114603 26 52 6.4 12.9 0.00 0.00 0.00 1 1013.5
20260903114503 26 53 6.4 12.9 0.00 0.00 0.00 1 1013.5
20260903114403 26 52 6.4 12.9 0.00 0.00 0.00 1 1013.5
20260903114303 26 50 6.4 12.9 0.00 0.00 0.00 1 1013.5
20260903114203 26 50 4.8 11.3 0.00 0.00 0.00 1 1013.5
20260903114104 26 47 6.4 12.9 0.00 0.00 0.00 1 1013.5
20260903114004 26 46 6.4 12.9 0.00 0.00 0.00 1 1013.5
20260903113904 26 42 6.4 16.1 0.00 0.00 0.00 1 1013.5
20260903113804 26 40 6.4 19.3 0.00 0.00 0.00 1 1013.5
20260903113704 26 39 8.0 19.3 0.00 0.00 0.00 1 1013.5
20260903113625 26 36 8.0 19.3 0.00 0.00 0.00 1 1013.5
20260903113504 26 31 8.0 19.3 0.00 0.00 0.00 1 1013.5
20260903113405 27 30 8.0 19.3 0.00 0.00 0.00 1 1013.5
20260903113325 27 30 8.0 19.3 0.00 0.00 0.00 1 1013.5
20260903113225 27 30 8.0 19.3 0.00 0.00 0.00 1 1013.4
20260903113104 27 29 8.0 19.3 0.00 0.00 0.00 1 1013.5
20260903113025 27 30 8.0 19.3 0.00 0.00 0.00 1 1013.5
20260903112925 27 32 8.0 19.3 0.00 0.00 0.00 1 1013.5
20260903112804 27 32 9.7 20.9 0.00 0.00 0.00 1 1013.5
20260903112704 27 34 8.0 20.9 0.00 0.00 0.00 1 1013.5
20260903112604 27 35 8.0 20.9 0.00 0.00 0.00 1 1013.5
20260903112505 27 38 8.0 20.9 0.00 0.00 0.00 1 1013.5
20260903112425 27 40 8.0 20.9 0.00 0.00 0.00 1 1013.5
20260903112305 27 40 8.0 20.9 0.00 0.00 0.00 1 1013.5
20260903112205 27 41 8.0 20.9 0.00 0.00 0.00 1 1013.5
20260903112104 27 43 8.0 20.9 0.00 0.00 0.00 1 1013.5
20260903112025 27 41 8.0 20.9 0.00 0.00 0.00 1 1013.5
20260903111904 27 40 8.0 20.9 0.00 0.00 0.00 1 1013.5
20260903111804 27 38 8.0 17.7 0.00 0.00 0.00 1 1013.5
20260903111725 27 36 8.0 17.7 0.00 0.00 0.00 1 1013.4
20260903111604 27 36 8.0 17.7 0.00 0.00 0.00 1 1013.4
20260903111504 27 35 8.0 17.7 0.00 0.00 0.00 1 1013.4
20260903111404 27 35 9.7 22.5 0.00 0.00 0.00 1 1013.4
20260903111306 27 35 9.7 22.5 0.00 0.00 0.00 1 1013.4
20260903111204 27 35 9.7 22.5 0.00 0.00 0.00 1 1013.4
20260903111104 27 35 9.7 22.5 0.00 0.00 0.00 1 1013.4
20260903111004 27 36 9.7 22.5 0.00 0.00 0.00 1 1013.5
20260903110904 27 38 9.7 22.5 0.00 0.00 0.00 1 1013.4
20260903110827 27 38 9.7 22.5 0.00 0.00 0.00 1 1013.4
20260903110704 27 38 9.7 22.5 0.00 0.00 0.00 1 1013.4
20260903110604 27 39 9.7 22.5 0.00 0.00 0.00 1 1013.4
20260903110504 27 40 9.7 22.5 0.00 0.00 0.00 1 1013.4
20260903110404 27 42 9.7 22.5 0.00 0.00 0.00 1 1013.4
20260903110325 27 41 9.7 22.5 0.00 0.00 0.00 1 1013.3
20260903110204 27 40 9.7 22.5 0.00 0.00 0.00 1 1013.4
20260903110104 27 41 9.7 22.5 0.00 0.00 0.00 1 1013.4
20260903110004 27 40 9.7 22.5 0.00 0.00 0.00 1 1013.4
20260903105904 27 38 9.7 22.5 0.00 0.00 0.00 1 1013.4
20260903105804 27 38 9.7 22.5 0.00 0.00 0.00 1 1013.4
20260903105705 27 38 9.7 22.5 0.00 0.00 0.00 1 1013.4
20260903105604 27 37 9.7 20.9 0.00 0.00 0.00 1 1013.4
20260903105504 27 35 9.7 20.9 0.00 0.00 0.00 1 1013.4
20260903105404 27 33 9.7 20.9 0.00 0.00 0.00 1 1013.3
20260903105325 27 35 9.7 20.9 0.00 0.00 0.00 1 1013.4
20260903105204 27 38 8.0 17.7 0.00 0.00 0.00 1 1013.3
20260903105104 27 38 8.0 17.7 0.00 0.00 0.00 1 1013.3
20260903105025 27 40 8.0 17.7 0.00 0.00 0.00 1 1013.3
20260903104904 27 41 8.0 17.7 0.00 0.00 0.00 1 1013.3
20260903104825 27 42 8.0 17.7 0.00 0.00 0.00 1 1013.3
20260903104704 27 40 8.0 19.3 0.00 0.00 0.00 1 1013.3
20260903104604 27 41 8.0 19.3 0.00 0.00 0.00 1 1013.3
20260903104504 27 42 8.0 19.3 0.00 0.00 0.00 1 1013.3
20260903104404 27 42 8.0 19.3 0.00 0.00 0.00 1 1013.2
20260903104304 27 41 8.0 19.3 0.00 0.00 0.00 1 1013.3
20260903104204 27 38 8.0 19.3 0.00 0.00 0.00 1 1013.3
20260903104104 27 36 8.0 19.3 0.00 0.00 0.00 1 1013.2
20260903104025 27 35 8.0 19.3 0.00 0.00 0.00 1 1013.2
20260903103904 26 35 8.0 19.3 0.00 0.00 0.00 1 1013.2
20260903103804 26 37 6.4 19.3 0.00 0.00 0.00 1 1013.2
20260903103704 26 37 6.4 17.7 0.00 0.00 0.00 1 1013.2
20260903103604 26 37 6.4 17.7 0.00 0.00 0.00 1 1013.2
20260903103504 26 38 6.4 14.5 0.00 0.00 0.00 1 1013.1
20260903103425 26 38 6.4 14.5 0.00 0.00 0.00 1 1013.2
20260903103325 26 38 8.0 22.5 0.00 0.00 0.00 1 1013.2
20260903103204 26 42 8.0 22.5 0.00 0.00 0.00 1 1013.1
20260903103104 26 42 8.0 22.5 0.00 0.00 0.00 1 1013.2
20260903103004 26 43 8.0 22.5 0.00 0.00 0.00 1 1013.1
20260903102904 26 44 8.0 22.5 0.00 0.00 0.00 1 1013.1
20260903102804 26 44 8.0 22.5 0.00 0.00 0.00 1 1013.1
20260903102704 26 46 8.0 22.5 0.00 0.00 0.00 1 1013.1
20260903102625 26 46 8.0 22.5 0.00 0.00 0.00 1 1013.1
20260903102504 26 46 8.0 22.5 0.00 0.00 0.00 1 1013.1
20260903102404 26 46 8.0 22.5 0.00 0.00 0.00 1 1013.1
20260903102306 26 45 8.0 19.3 0.00 0.00 0.00 1 1013.1
20260903102204 26 42 9.7 19.3 0.00 0.00 0.00 1 1013.1
20260903102104 26 41 9.7 22.5 0.00 0.00 0.00 1 1013.1
20260903102004 26 40 9.7 22.5 0.00 0.00 0.00 1 1013.1
20260903101906 26 36 9.7 22.5 0.00 0.00 0.00 1 1013.2
20260903101804 26 34 9.7 22.5 0.00 0.00 0.00 1 1013.1
20260903101704 26 33 9.7 22.5 0.00 0.00 0.00 1 1013.1
20260903101604 26 34 9.7 22.5 0.00 0.00 0.00 1 1013.1
20260903101504 26 34 9.7 22.5 0.00 0.00 0.00 1 1013.1
20260903101404 26 33 9.7 22.5 0.00 0.00 0.00 1 1013.1
20260903101304 26 33 8.0 22.5 0.00 0.00 0.00 1 1013.2
20260903101204 26 35 8.0 22.5 0.00 0.00 0.00 1 1013.2
20260903101105 26 37 8.0 17.7 0.00 0.00 0.00 1 1013.1
20260903101004 26 39 8.0 17.7 0.00 0.00 0.00 1 1013.1
20260903100904 26 44 8.0 17.7 0.00 0.00 0.00 1 1013.1
20260903100804 26 44 8.0 17.7 0.00 0.00 0.00 1 1013.1
20260903100704 26 44 8.0 17.7 0.00 0.00 0.00 1 1013.1
20260903100625 26 43 8.0 17.7 0.00 0.00 0.00 1 1013.1
20260903100504 26 43 8.0 17.7 0.00 0.00 0.00 1 1013.1
20260903100404 26 45 6.4 14.5 0.00 0.00 0.00 1 1013.1
20260903100304 26 47 6.4 14.5 0.00 0.00 0.00 1 1013.1
20260903100204 26 47 8.0 14.5 0.00 0.00 0.00 1 1013.1
20260903100104 26 47 8.0 14.5 0.00 0.00 0.00 1 1013.1
20260903100004 26 47 8.0 14.5 0.00 0.00 0.00 1 1013.1
20260903095925 26 45 8.0 14.5 0.00 0.00 0.00 1 1013.1
20260903095804 26 46 6.4 14.5 0.00 0.00 0.00 1 1013.1
20260903095727 26 47 6.4 14.5 0.00 0.00 0.00 1 1013.1
20260903095604 26 48 6.4 14.5 0.00 0.00 0.00 1 1013.2
20260903095525 26 49 6.4 14.5 0.00 0.00 0.00 1 1013.2
20260903095404 26 49 8.0 14.5 0.00 0.00 0.00 1 1013.2
20260903095306 26 49 8.0 14.5 0.00 0.00 0.00 1 1013.2
20260903095225 26 49 8.0 14.5 0.00 0.00 0.00 1 1013.2
20260903095104 26 48 8.0 14.5 0.00 0.00 0.00 1 1013.2
20260903095004 26 46 8.0 14.5 0.00 0.00 0.00 1 1013.3
20260903094904 26 45 9.7 20.9 0.00 0.00 0.00 1 1013.2
20260903094804 26 44 9.7 20.9 0.00 0.00 0.00 1 1013.3
20260903094704 26 44 9.7 20.9 0.00 0.00 0.00 1 1013.3
20260903094625 26 44 9.7 20.9 0.00 0.00 0.00 1 1013.3
20260903094525 26 44 9.7 20.9 0.00 0.00 0.00 1 1013.3
20260903094404 26 43 9.7 20.9 0.00 0.00 0.00 1 1013.3
20260903094306 26 42 9.7 20.9 0.00 0.00 0.00 1 1013.3
20260903094204 26 43 9.7 20.9 0.00 0.00 0.00 1 1013.3
20260903094104 26 42 9.7 20.9 0.00 0.00 0.00 1 1013.3
20260903094004 26 41 9.7 20.9 0.00 0.00 0.00 1 1013.3
20260903093904 26 42 9.7 16.1 0.00 0.00 0.00 1 1013.3
20260903093804 26 42 9.7 17.7 0.00 0.00 0.00 1 1013.3
20260903093704 26 42 9.7 17.7 0.00 0.00 0.00 1 1013.3
20260903093604 26 42 9.7 17.7 0.00 0.00 0.00 1 1013.3
20260903093504 26 41 9.7 19.3 0.00 0.00 0.00 1 1013.3
20260903093404 26 41 9.7 19.3 0.00 0.00 0.00 1 1013.4
20260903093304 26 41 9.7 19.3 0.00 0.00 0.00 1 1013.3
20260903093204 26 42 9.7 19.3 0.00 0.00 0.00 1 1013.4
20260903093104 26 44 9.7 19.3 0.00 0.00 0.00 1 1013.4
20260903093004 26 45 9.7 19.3 0.00 0.00 0.00 1 1013.4
20260903092904 26 45 8.0 19.3 0.00 0.00 0.00 1 1013.4
20260903092804 26 46 8.0 19.3 0.00 0.00 0.00 1 1013.4
20260903092725 26 46 8.0 19.3 0.00 0.00 0.00 1 1013.4
20260903092604 26 46 8.0 19.3 0.00 0.00 0.00 1 1013.4
20260903092504 26 47 8.0 17.7 0.00 0.00 0.00 1 1013.4
20260903092404 26 46 8.0 16.1 0.00 0.00 0.00 1 1013.4
20260903092325 26 47 8.0 16.1 0.00 0.00 0.00 1 1013.4
20260903092204 27 47 8.0 16.1 0.00 0.00 0.00 1 1013.4
20260903092104 27 47 8.0 16.1 0.00 0.00 0.00 1 1013.4
20260903092004 27 47 8.0 16.1 0.00 0.00 0.00 1 1013.3
20260903091904 27 47 6.4 16.1 0.00 0.00 0.00 1 1013.4
20260903091825 27 46 8.0 16.1 0.00 0.00 0.00 1 1013.4
20260903091704 27 43 8.0 19.3 0.00 0.00 0.00 1 1013.4
20260903091604 27 42 8.0 19.3 0.00 0.00 0.00 1 1013.4
20260903091504 27 42 8.0 19.3 0.00 0.00 0.00 1 1013.4
20260903091404 27 43 8.0 19.3 0.00 0.00 0.00 1 1013.5
20260903091304 27 42 9.7 19.3 0.00 0.00 0.00 1 1013.4
20260903091204 27 41 9.7 19.3 0.00 0.00 0.00 1 1013.5
20260903091104 27 40 9.7 24.1 0.00 0.00 0.00 1 1013.5
20260903091004 27 40 11.3 24.1 0.00 0.00 0.00 1 1013.5
20260903090904 27 41 11.3 24.1 0.00 0.00 0.00 1 1013.5
20260903090804 27 44 11.3 24.1 0.00 0.00 0.00 1 1013.5
20260903090706 27 45 11.3 24.1 0.00 0.00 0.00 1 1013.5
20260903090604 27 45 11.3 24.1 0.00 0.00 0.00 1 1013.5
20260903090504 27 44 11.3 24.1 0.00 0.00 0.00 1 1013.5
20260903090404 27 43 11.3 24.1 0.00 0.00 0.00 1 1013.5
20260903090304 27 43 11.3 24.1 0.00 0.00 0.00 1 1013.4
20260903090204 27 43 11.3 24.1 0.00 0.00 0.00 1 1013.4
20260903090104 27 45 9.7 22.5 0.00 0.00 0.00 1 1013.4
20260903090004 27 46 9.7 22.5 0.00 0.00 0.00 1 1013.4
20260903085904 27 44 11.3 22.5 0.00 0.00 0.00 1 1013.5
20260903085804 27 43 11.3 22.5 0.00 0.00 0.00 1 1013.4
20260903085704 27 43 9.7 22.5 0.00 0.00 0.00 1 1013.5
20260903085604 27 43 9.7 22.5 0.00 0.00 0.00 1 1013.5
20260903085504 27 45 9.7 22.5 0.00 0.00 0.00 1 1013.4
20260903085404 27 46 9.7 22.5 0.00 0.00 0.00 1 1013.4
20260903085306 27 46 8.0 16.1 0.00 0.00 0.00 1 1013.4
20260903085204 27 46 8.0 16.1 0.00 0.00 0.00 1 1013.4
20260903085104 27 45 9.7 22.5 0.00 0.00 0.00 1 1013.5
20260903085004 27 44 8.0 22.5 0.00 0.00 0.00 1 1013.4
20260903084904 27 46 8.0 22.5 0.00 0.00 0.00 1 1013.5
20260903084825 27 45 8.0 22.5 0.00 0.00 0.00 1 1013.4
20260903084725 27 44 9.7 22.5 0.00 0.00 0.00 1 1013.5
20260903084604 27 40 9.7 22.5 0.00 0.00 0.00 1 1013.5
20260903084504 27 40 9.7 22.5 0.00 0.00 0.00 1 1013.5
20260903084404 27 38 9.7 22.5 0.00 0.00 0.00 1 1013.5
20260903084304 27 36 9.7 22.5 0.00 0.00 0.00 1 1013.5
20260903084227 27 36 9.7 22.5 0.00 0.00 0.00 1 1013.5
20260903084106 27 36 9.7 19.3 0.00 0.00 0.00 1 1013.5
20260903084004 27 38 9.7 19.3 0.00 0.00 0.00 1 1013.5
20260903083925 27 36 9.7 20.9 0.00 0.00 0.00 1 1013.5
20260903083804 27 35 9.7 20.9 0.00 0.00 0.00 1 1013.5
20260903083704 27 35 9.7 20.9 0.00 0.00 0.00 1 1013.4
20260903083604 27 37 9.7 20.9 0.00 0.00 0.00 1 1013.4
20260903083504 27 38 9.7 20.9 0.00 0.00 0.00 1 1013.4
20260903083404 27 39 9.7 20.9 0.00 0.00 0.00 1 1013.4
20260903083304 27 38 9.7 20.9 0.00 0.00 0.00 1 1013.4
20260903083204 27 39 9.7 20.9 0.00 0.00 0.00 1 1013.4
20260903083104 27 38 9.7 20.9 0.00 0.00 0.00 1 1013.4
20260903083025 27 36 9.7 20.9 0.00 0.00 0.00 1 1013.4
20260903082925 27 36 9.7 19.3 0.00 0.00 0.00 1 1013.4
20260903082804 27 36 8.0 19.3 0.00 0.00 0.00 1 1013.4
20260903082704 27 35 8.0 17.7 0.00 0.00 0.00 1 1013.4
20260903082625 27 36 9.7 17.7 0.00 0.00 0.00 1 1013.4
20260903082504 27 36 9.7 17.7 0.00 0.00 0.00 1 1013.4
20260903082425 27 35 9.7 24.1 0.00 0.00 0.00 1 1013.4
20260903082306 27 35 9.7 25.7 0.00 0.00 0.00 1 1013.4
20260903082204 27 34 9.7 25.7 0.00 0.00 0.00 1 1013.4
20260903082125 27 33 9.7 25.7 0.00 0.00 0.00 1 1013.5
20260903082004 27 35 9.7 25.7 0.00 0.00 0.00 1 1013.4
20260903081904 27 34 11.3 25.7 0.00 0.00 0.00 1 1013.4
20260903081804 27 35 11.3 25.7 0.00 0.00 0.00 1 1013.5
20260903081725 27 35 11.3 25.7 0.00 0.00 0.00 1 1013.4
20260903081604 27 35 11.3 25.7 0.00 0.00 0.00 1 1013.5
20260903081504 27 36 11.3 25.7 0.00 0.00 0.00 1 1013.5
20260903081426 27 35 11.3 25.7 0.00 0.00 0.00 1 1013.4
20260903081304 27 37 11.3 24.1 0.00 0.00 0.00 1 1013.5
20260903081227 27 38 11.3 24.1 0.00 0.00 0.00 1 1013.4
20260903081125 27 39 11.3 24.1 0.00 0.00 0.00 1 1013.4
20260903081025 27 37 11.3 24.1 0.00 0.00 0.00 1 1013.4
20260903080904 27 35 11.3 24.1 0.00 0.00 0.00 1 1013.4
20260903080804 27 34 11.3 24.1 0.00 0.00 0.00 1 1013.4
20260903080704 27 34 11.3 24.1 0.00 0.00 0.00 1 1013.4
20260903080604 27 33 11.3 25.7 0.00 0.00 0.00 1 1013.4
20260903080525 27 33 12.9 25.7 0.00 0.00 0.00 1 1013.4
20260903080404 27 32 12.9 25.7 0.00 0.00 0.00 1 1013.4
20260903080304 27 31 12.9 25.7 0.00 0.00 0.00 1 1013.3
20260903080204 27 32 12.9 25.7 0.00 0.00 0.00 1 1013.4
20260903080104 27 32 12.9 25.7 0.00 0.00 0.00 1 1013.3
20260903080025 27 32 12.9 25.7 0.00 0.00 0.00 1 1013.4
20260903075904 27 31 12.9 25.7 0.00 0.00 0.00 1 1013.4
20260903075825 27 31 12.9 25.7 0.00 0.00 0.00 1 1013.3
20260903075704 27 31 12.9 25.7 0.00 0.00 0.00 1 1013.4
20260903075604 27 32 12.9 24.1 0.00 0.00 0.00 1 1013.3
20260903075504 27 32 12.9 24.1 0.00 0.00 0.00 1 1013.3
20260903075404 27 33 12.9 24.1 0.00 0.00 0.00 1 1013.3
20260903075306 27 32 11.3 24.1 0.00 0.00 0.00 1 1013.3
20260903075225 27 31 11.3 24.1 0.00 0.00 0.00 1 1013.3
20260903075104 27 29 11.3 24.1 0.00 0.00 0.00 1 1013.3
20260903075025 27 28 11.3 24.1 0.00 0.00 0.00 1 1013.3
20260903074904 27 33 9.7 24.1 0.00 0.00 0.00 1 1013.3
20260903074825 27 33 9.7 24.1 0.00 0.00 0.00 1 1013.4
20260903074704 27 33 9.7 20.9 0.00 0.00 0.00 1 1013.4
20260903074604 27 33 9.7 20.9 0.00 0.00 0.00 1 1013.3
20260903074504 27 31 9.7 20.9 0.00 0.00 0.00 1 1013.3
20260903074404 27 33 9.7 17.7 0.00 0.00 0.00 1 1013.4
20260903074325 27 33 9.7 19.3 0.00 0.00 0.00 1 1013.4
20260903074204 27 37 9.7 19.3 0.00 0.00 0.00 1 1013.4
20260903074104 27 37 9.7 19.3 0.00 0.00 0.00 1 1013.4
20260903074004 27 37 9.7 19.3 0.00 0.00 0.00 1 1013.4
20260903073904 27 37 9.7 19.3 0.00 0.00 0.00 1 1013.4
20260903073825 27 38 9.7 19.3 0.00 0.00 0.00 1 1013.4
20260903073725 27 36 9.7 19.3 0.00 0.00 0.00 1 1013.4
20260903073604 27 37 9.7 19.3 0.00 0.00 0.00 1 1013.4
20260903073504 27 38 9.7 19.3 0.00 0.00 0.00 1 1013.5
20260903073404 27 37 9.7 19.3 0.00 0.00 0.00 1 1013.4
20260903073304 27 37 9.7 19.3 0.00 0.00 0.00 1 1013.4
20260903073225 27 36 9.7 19.3 0.00 0.00 0.00 1 1013.4
20260903073104 27 35 9.7 19.3 0.00 0.00 0.00 1 1013.4
20260903073004 27 33 9.7 19.3 0.00 0.00 0.00 1 1013.4
20260903072925 27 31 9.7 17.7 0.00 0.00 0.00 1 1013.5
20260903072804 27 30 9.7 17.7 0.00 0.00 0.00 1 1013.4
20260903072704 27 31 9.7 17.7 0.00 0.00 0.00 1 1013.5
20260903072604 27 29 9.7 17.7 0.00 0.00 0.00 1 1013.5
20260903072504 27 31 9.7 17.7 0.00 0.00 0.00 1 1013.5
20260903072425 27 31 9.7 17.7 0.00 0.00 0.00 1 1013.5
20260903072306 27 31 9.7 20.9 0.00 0.00 0.00 1 1013.5
20260903072204 27 33 9.7 20.9 0.00 0.00 0.00 1 1013.5
20260903072104 27 34 8.0 20.9 0.00 0.00 0.00 1 1013.5
20260903072004 27 34 8.0 20.9 0.00 0.00 0.00 1 1013.5
20260903071905 27 33 9.7 20.9 0.00 0.00 0.00 1 1013.5
20260903071804 27 35 8.0 20.9 0.00 0.00 0.00 1 1013.5
20260903071704 27 36 8.0 20.9 0.00 0.00 0.00 1 1013.5
20260903071605 27 34 8.0 20.9 0.00 0.00 0.00 1 1013.5
20260903071504 27 32 8.0 20.9 0.00 0.00 0.00 1 1013.6
20260903071425 27 31 8.0 20.9 0.00 0.00 0.00 1 1013.5
20260903071304 27 27 8.0 20.9 0.00 0.00 0.00 1 1013.5
20260903071204 27 22 8.0 19.3 0.00 0.00 0.00 1 1013.5
20260903071125 27 18 8.0 19.3 0.00 0.00 0.00 1 1013.6
20260903071004 27 12 8.0 19.3 0.00 0.00 0.00 1 1013.6
20260903070904 27 11 6.4 19.3 0.00 0.00 0.00 1 1013.6
20260903070825 27 10 6.4 14.5 0.00 0.00 0.00 1 1013.6
20260903070704 27 9 6.4 14.5 0.00 0.00 0.00 1 1013.6
20260903070604 27 10 6.4 14.5 0.00 0.00 0.00 1 1013.6
20260903070504 27 11 6.4 14.5 0.00 0.00 0.00 1 1013.6
20260903070404 27 11 6.4 17.7 0.00 0.00 0.00 1 1013.7
20260903070304 27 12 6.4 17.7 0.00 0.00 0.00 1 1013.7
20260903070204 27 18 6.4 17.7 0.00 0.00 0.00 1 1013.7
20260903070104 27 23 6.4 17.7 0.00 0.00 0.00 1 1013.7
20260903070004 27 26 8.0 17.7 0.00 0.00 0.00 1 1013.6
20260903065904 27 27 6.4 17.7 0.00 0.00 0.00 1 1013.7
20260903065804 27 28 6.4 17.7 0.00 0.00 0.00 1 1013.7
20260903065704 27 25 6.4 17.7 0.00 0.00 0.00 1 1013.6
20260903065604 27 27 8.0 17.7 0.00 0.00 0.00 1 1013.7
20260903065504 27 29 8.0 17.7 0.00 0.00 0.00 1 1013.7
20260903065404 27 28 6.4 14.5 0.00 0.00 0.00 1 1013.7
20260903065306 27 31 6.4 14.5 0.00 0.00 0.00 1 1013.6
20260903065204 27 31 6.4 14.5 0.00 0.00 0.00 1 1013.6
20260903065104 27 31 6.4 14.5 0.00 0.00 0.00 1 1013.7
20260903065004 27 33 6.4 14.5 0.00 0.00 0.00 1 1013.6
20260903064925 27 32 6.4 14.5 0.00 0.00 0.00 1 1013.7
20260903064804 27 28 6.4 14.5 0.00 0.00 0.00 1 1013.8
20260903064704 27 30 6.4 12.9 0.00 0.00 0.00 1 1013.7
20260903064604 27 31 6.4 12.9 0.00 0.00 0.00 1 1013.6
20260903064504 27 31 6.4 12.9 0.00 0.00 0.00 1 1013.7
20260903064404 27 32 6.4 12.9 0.00 0.00 0.00 1 1013.7
20260903064304 27 27 6.4 12.9 0.00 0.00 0.00 1 1013.7
20260903064225 27 24 6.4 12.9 0.00 0.00 0.00 1 1013.7
20260903064104 27 18 4.8 12.9 0.00 0.00 0.00 1 1013.7
20260903064004 27 13 6.4 12.9 0.00 0.00 0.00 1 1013.8
20260903063905 27 14 6.4 12.9 0.00 0.00 0.00 1 1013.8
20260903063804 27 16 4.8 12.9 0.00 0.00 0.00 1 1013.8
20260903063704 27 14 6.4 16.1 0.00 0.00 0.00 1 1013.8
20260903063604 27 15 6.4 16.1 0.00 0.00 0.00 1 1013.8
20260903063504 27 13 6.4 16.1 0.00 0.00 0.00 1 1013.8
20260903063405 27 14 6.4 16.1 0.00 0.00 0.00 1 1013.8
20260903063304 27 12 6.4 16.1 0.00 0.00 0.00 1 1013.9
20260903063204 27 16 6.4 16.1 0.00 0.00 0.00 1 1013.8
20260903063104 27 23 6.4 16.1 0.00 0.00 0.00 1 1013.8
20260903063004 27 27 6.4 16.1 0.00 0.00 0.00 1 1013.8
20260903062904 27 24 6.4 16.1 0.00 0.00 0.00 1 1013.8
20260903062806 27 19 6.4 16.1 0.00 0.00 0.00 1 1013.9
20260903062704 27 12 6.4 12.9 0.00 0.00 0.00 1 1013.9
20260903062604 27 10 6.4 12.9 0.00 0.00 0.00 1 1013.8
20260903062504 27 6 6.4 12.9 0.00 0.00 0.00 1 1013.8
20260903062404 27 355 4.8 12.9 0.00 0.00 0.00 1 1013.9
20260903062306 27 355 4.8 12.9 0.00 0.00 0.00 1 1013.9
20260903062204 27 348 4.8 12.9 0.00 0.00 0.00 1 1013.8
20260903062105 27 337 4.8 12.9 0.00 0.00 0.00 1 1013.8
20260903062004 27 320 4.8 12.9 0.00 0.00 0.00 1 1013.8
20260903061904 27 318 4.8 12.9 0.00 0.00 0.00 1 1013.9
20260903061805 27 317 4.8 12.9 0.00 0.00 0.00 1 1013.8
20260903061704 27 315 4.8 12.9 0.00 0.00 0.00 1 1013.9
20260903061604 27 307 4.8 11.3 0.00 0.00 0.00 1 1013.8
20260903061505 27 305 4.8 11.3 0.00 0.00 0.00 1 1013.8
20260903061404 27 309 4.8 11.3 0.00 0.00 0.00 1 1013.8
20260903061304 27 313 4.8 11.3 0.00 0.00 0.00 1 1013.8
20260903061204 27 315 4.8 11.3 0.00 0.00 0.00 1 1013.9
20260903061104 27 319 4.8 11.3 0.00 0.00 0.00 1 1013.9
20260903061004 27 327 4.8 11.3 0.00 0.00 0.00 1 1013.9
20260903060904 27 328 4.8 11.3 0.00 0.00 0.00 1 1013.8
20260903060804 27 330 4.8 11.3 0.00 0.00 0.00 1 1013.8
20260903060704 27 330 4.8 11.3 0.00 0.00 0.00 1 1013.8
20260903060604 27 337 4.8 11.3 0.00 0.00 0.00 1 1013.8
20260903060504 27 342 4.8 11.3 0.00 0.00 0.00 1 1013.9
20260903060425 27 343 4.8 11.3 0.00 0.00 0.00 1 1013.9
20260903060325 27 341 4.8 11.3 0.00 0.00 0.00 1 1013.9
20260903060204 27 341 4.8 16.1 0.00 0.00 0.00 1 1013.9
20260903060104 27 341 4.8 16.1 0.00 0.00 0.00 1 1013.9
20260903060004 27 336 4.8 16.1 0.00 0.00 0.00 1 1013.9
20260903055925 27 333 4.8 16.1 0.00 0.00 0.00 1 1013.9
20260903055825 27 332 4.8 16.1 0.00 0.00 0.00 1 1013.9
20260903055704 27 333 4.8 16.1 0.00 0.00 0.00 1 1013.9
20260903055604 27 333 6.4 16.1 0.00 0.00 0.00 1 1013.9
20260903055504 27 333 6.4 16.1 0.00 0.00 0.00 1 1013.9
20260903055404 27 333 6.4 16.1 0.00 0.00 0.00 1 1013.9
20260903055306 27 337 6.4 16.1 0.00 0.00 0.00 1 1013.9
20260903055204 27 342 6.4 14.5 0.00 0.00 0.00 1 1013.9
20260903055104 27 346 6.4 14.5 0.00 0.00 0.00 1 1013.8
20260903055004 27 346 6.4 14.5 0.00 0.00 0.00 1 1013.8
20260903054904 27 344 6.4 14.5 0.00 0.00 0.00 1 1013.8
20260903054804 27 341 6.4 14.5 0.00 0.00 0.00 1 1013.8
20260903054704 27 345 6.4 14.5 0.00 0.00 0.00 1 1013.8
20260903054625 27 348 6.4 14.5 0.00 0.00 0.00 1 1013.9
20260903054525 27 345 6.4 14.5 0.00 0.00 0.00 1 1013.8
20260903054404 27 342 6.4 14.5 0.00 0.00 0.00 1 1013.8
20260903054304 27 339 8.0 22.5 0.00 0.00 0.00 1 1013.8
20260903054204 27 332 8.0 22.5 0.00 0.00 0.00 1 1013.8
20260903054104 27 326 8.0 22.5 0.00 0.00 0.00 1 1013.8
20260903054004 27 333 8.0 22.5 0.00 0.00 0.00 1 1013.8
20260903053904 27 341 8.0 22.5 0.00 0.00 0.00 1 1013.8
20260903053804 27 349 9.7 22.5 0.00 0.00 0.00 1 1013.7
20260903053704 27 347 9.7 22.5 0.00 0.00 0.00 1 1013.8
20260903053604 27 346 9.7 22.5 0.00 0.00 0.00 1 1013.8
20260903053504 27 347 9.7 22.5 0.00 0.00 0.00 1 1013.8
20260903053404 27 353 9.7 22.5 0.00 0.00 0.00 1 1013.8
20260903053304 27 356 8.0 20.9 0.00 0.00 0.00 1 1013.7
20260903053225 27 357 8.0 20.9 0.00 0.00 0.00 1 1013.7
20260903053104 27 359 8.0 20.9 0.00 0.00 0.00 1 1013.7
20260903053004 27 357 6.4 20.9 0.00 0.00 0.00 1 1013.7
20260903052904 27 349 6.4 20.9 0.00 0.00 0.00 1 1013.7
20260903052825 27 345 6.4 20.9 0.00 0.00 0.00 1 1013.7
20260903052725 27 347 6.4 20.9 0.00 0.00 0.00 1 1013.7
20260903052604 27 346 6.4 16.1 0.00 0.00 0.00 1 1013.7
20260903052504 27 342 6.4 16.1 0.00 0.00 0.00 1 1013.6
20260903052404 27 338 6.4 16.1 0.00 0.00 0.00 1 1013.7
20260903052307 27 334 6.4 16.1 0.00 0.00 0.00 1 1013.7
20260903052204 27 331 6.4 16.1 0.00 0.00 0.00 1 1013.7
20260903052104 27 332 6.4 16.1 0.00 0.00 0.00 1 1013.7
20260903052004 27 331 6.4 16.1 0.00 0.00 0.00 1 1013.7
20260903051925 27 332 6.4 16.1 0.00 0.00 0.00 1 1013.7
20260903051825 27 336 4.8 16.1 0.00 0.00 0.00 1 1013.7
20260903051704 27 328 4.8 11.3 0.00 0.00 0.00 1 1013.7
20260903051604 27 330 4.8 11.3 0.00 0.00 0.00 1 1013.6
20260903051525 27 329 4.8 11.3 0.00 0.00 0.00 1 1013.8
20260903051425 27 322 4.8 11.3 0.00 0.00 0.00 1 1013.7
20260903051304 27 318 6.4 11.3 0.00 0.00 0.00 1 1013.8
20260903051204 27 320 4.8 11.3 0.00 0.00 0.00 1 1013.8
20260903051104 27 318 4.8 11.3 0.00 0.00 0.00 1 1013.8
20260903051025 27 317 4.8 11.3 0.00 0.00 0.00 1 1013.8
20260903050904 27 315 4.8 11.3 0.00 0.00 0.00 1 1013.8
20260903050804 27 314 4.8 11.3 0.00 0.00 0.00 1 1013.7
20260903050704 27 313 4.8 11.3 0.00 0.00 0.00 1 1013.8
20260903050604 27 310 4.8 11.3 0.00 0.00 0.00 1 1013.8
20260903050504 27 313 4.8 11.3 0.00 0.00 0.00 1 1013.8
20260903050425 27 315 4.8 12.9 0.00 0.00 0.00 1 1013.8
20260903050304 27 319 4.8 12.9 0.00 0.00 0.00 1 1013.8
20260903050204 27 321 4.8 12.9 0.00 0.00 0.00 1 1013.7
20260903050104 27 319 6.4 12.9 0.00 0.00 0.00 1 1013.7
20260903050004 27 320 6.4 12.9 0.00 0.00 0.00 1 1013.7
20260903045904 27 325 6.4 12.9 0.00 0.00 0.00 1 1013.7
20260903045825 27 329 6.4 12.9 0.00 0.00 0.00 1 1013.7
20260903045704 27 334 6.4 12.9 0.00 0.00 0.00 1 1013.6
20260903045604 27 332 6.4 12.9 0.00 0.00 0.00 1 1013.7
20260903045504 27 329 6.4 12.9 0.00 0.00 0.00 1 1013.6
20260903045404 27 327 6.4 12.9 0.00 0.00 0.00 1 1013.7
20260903045306 27 332 6.4 14.5 0.00 0.00 0.00 1 1013.8
20260903045204 27 331 6.4 14.5 0.00 0.00 0.00 1 1013.7
20260903045125 27 334 6.4 14.5 0.00 0.00 0.00 1 1013.7
20260903045004 27 340 6.4 17.7 0.00 0.00 0.00 1 1013.7
20260903044904 27 336 6.4 17.7 0.00 0.00 0.00 1 1013.6
20260903044804 27 332 6.4 17.7 0.00 0.00 0.00 1 1013.7
20260903044704 27 329 6.4 17.7 0.00 0.00 0.00 1 1013.7
20260903044604 27 329 6.4 17.7 0.00 0.00 0.00 1 1013.6
20260903044504 27 330 6.4 17.7 0.00 0.00 0.00 1 1013.6
20260903044404 27 329 6.4 17.7 0.00 0.00 0.00 1 1013.6
20260903044304 27 322 4.8 17.7 0.00 0.00 0.00 1 1013.6
20260903044204 27 316 4.8 17.7 0.00 0.00 0.00 1 1013.6
20260903044104 27 300 4.8 16.1 0.00 0.00 0.00 1 1013.6
20260903044025 27 294 4.8 12.9 0.00 0.00 0.00 1 1013.6
20260903043925 27 284 4.8 12.9 0.00 0.00 0.00 1 1013.6
20260903043804 27 275 4.8 12.9 0.00 0.00 0.00 1 1013.6
20260903043704 27 269 4.8 12.9 0.00 0.00 0.00 1 1013.6
20260903043604 27 261 3.2 9.7 0.00 0.00 0.00 1 1013.6
20260903043504 27 260 3.2 9.7 0.00 0.00 0.00 1 1013.6
20260903043404 27 258 3.2 9.7 0.00 0.00 0.00 1 1013.6
20260903043304 27 255 3.2 9.7 0.00 0.00 0.00 1 1013.6
20260903043204 27 253 3.2 9.7 0.00 0.00 0.00 1 1013.5
20260903043104 27 249 3.2 9.7 0.00 0.00 0.00 1 1013.5
20260903043004 27 248 3.2 6.4 0.00 0.00 0.00 1 1013.5
20260903042904 27 248 3.2 6.4 0.00 0.00 0.00 1 1013.6
20260903042804 27 248 3.2 6.4 0.00 0.00 0.00 1 1013.5
20260903042704 27 248 3.2 6.4 0.00 0.00 0.00 1 1013.5
20260903042625 27 248 3.2 6.4 0.00 0.00 0.00 1 1013.5
20260903042504 27 248 3.2 6.4 0.00 0.00 0.00 1 1013.5
20260903042404 27 248 3.2 6.4 0.00 0.00 0.00 1 1013.5
20260903042306 27 248 3.2 6.4 0.00 0.00 0.00 1 1013.5
20260903042204 27 248 3.2 6.4 0.00 0.00 0.00 1 1013.6
20260903042104 27 248 3.2 6.4 0.00 0.00 0.00 1 1013.6
20260903042025 27 248 3.2 6.4 0.00 0.00 0.00 1 1013.6
20260903041904 27 248 1.6 4.8 0.00 0.00 0.00 1 1013.6
20260903041804 27 248 1.6 4.8 0.00 0.00 0.00 1 1013.7
20260903041725 27 248 1.6 4.8 0.00 0.00 0.00 1 1013.6
20260903041604 27 248 1.6 4.8 0.00 0.00 0.00 1 1013.7
20260903041504 27 248 1.6 4.8 0.00 0.00 0.00 1 1013.7
20260903041404 27 248 1.6 4.8 0.00 0.00 0.00 1 1013.7
20260903041304 27 248 1.6 4.8 0.00 0.00 0.00 1 1013.7
20260903041204 27 248 3.2 8.0 0.00 0.00 0.00 1 1013.7
20260903041104 27 248 3.2 8.0 0.00 0.00 0.00 1 1013.7
20260903041025 27 248 3.2 8.0 0.00 0.00 0.00 1 1013.6
20260903040925 27 248 3.2 8.0 0.00 0.00 0.00 1 1013.6
20260903040804 27 248 3.2 8.0 0.00 0.00 0.00 1 1013.7
20260903040704 27 248 3.2 8.0 0.00 0.00 0.00 1 1013.6
20260903040604 27 248 3.2 8.0 0.00 0.00 0.00 1 1013.6
20260903040504 27 248 3.2 8.0 0.00 0.00 0.00 1 1013.5
20260903040404 27 248 3.2 8.0 0.00 0.00 0.00 1 1013.6
20260903040304 27 248 3.2 8.0 0.00 0.00 0.00 1 1013.6
20260903040204 27 248 3.2 8.0 0.00 0.00 0.00 1 1013.6
20260903040104 27 248 3.2 6.4 0.00 0.00 0.00 1 1013.6
20260903040004 27 248 3.2 8.0 0.00 0.00 0.00 1 1013.5
20260903035904 27 247 3.2 8.0 0.00 0.00 0.00 1 1013.6
20260903035825 27 246 3.2 11.3 0.00 0.00 0.00 1 1013.6
20260903035725 27 247 3.2 11.3 0.00 0.00 0.00 1 1013.6
20260903035604 27 248 3.2 11.3 0.00 0.00 0.00 1 1013.6
20260903035504 27 249 4.8 11.3 0.00 0.00 0.00 1 1013.6
20260903035404 27 251 4.8 11.3 0.00 0.00 0.00 1 1013.5
20260903035306 27 252 4.8 11.3 0.00 0.00 0.00 1 1013.6
20260903035204 27 253 4.8 11.3 0.00 0.00 0.00 1 1013.6
20260903035125 27 254 4.8 11.3 0.00 0.00 0.00 1 1013.6
20260903035004 27 255 4.8 11.3 0.00 0.00 0.00 1 1013.6
20260903034904 27 255 4.8 11.3 0.00 0.00 0.00 1 1013.6
20260903034804 27 257 4.8 9.7 0.00 0.00 0.00 1 1013.6
20260903034725 27 256 4.8 9.7 0.00 0.00 0.00 1 1013.6
20260903034625 27 256 4.8 9.7 0.00 0.00 0.00 1 1013.6
20260903034504 27 255 4.8 9.7 0.00 0.00 0.00 1 1013.6
20260903034404 27 254 4.8 9.7 0.00 0.00 0.00 1 1013.7
20260903034304 27 256 3.2 9.7 0.00 0.00 0.00 1 1013.7
20260903034225 27 258 3.2 9.7 0.00 0.00 0.00 1 1013.7
20260903034104 27 262 3.2 9.7 0.00 0.00 0.00 1 1013.7
20260903034004 27 267 4.8 9.7 0.00 0.00 0.00 1 1013.7
20260903033925 27 266 4.8 16.1 0.00 0.00 0.00 1 1013.7
20260903033804 27 266 4.8 16.1 0.00 0.00 0.00 1 1013.6
20260903033704 27 267 4.8 16.1 0.00 0.00 0.00 1 1013.7
20260903033604 27 270 4.8 16.1 0.00 0.00 0.00 1 1013.6
20260903033504 27 270 6.4 16.1 0.00 0.00 0.00 1 1013.7
20260903033404 27 272 6.4 16.1 0.00 0.00 0.00 1 1013.7
20260903033304 27 273 6.4 16.1 0.00 0.00 0.00 1 1013.7
20260903033204 27 270 6.4 16.1 0.00 0.00 0.00 1 1013.7
20260903033104 27 267 8.0 16.1 0.00 0.00 0.00 1 1013.7
20260903033004 27 265 6.4 16.1 0.00 0.00 0.00 1 1013.8
20260903032904 27 266 6.4 17.7 0.00 0.00 0.00 1 1013.8
20260903032804 27 267 6.4 17.7 0.00 0.00 0.00 1 1013.8
20260903032725 27 267 6.4 17.7 0.00 0.00 0.00 1 1013.8
20260903032604 27 263 8.0 17.7 0.00 0.00 0.00 1 1013.8
20260903032504 28 263 8.0 17.7 0.00 0.00 0.00 1 1013.8
20260903032404 28 262 8.0 17.7 0.00 0.00 0.00 1 1013.9
20260903032325 28 260 8.0 17.7 0.00 0.00 0.00 1 1013.9
20260903032204 28 258 8.0 17.7 0.00 0.00 0.00 1 1013.8
20260903032104 28 261 8.0 17.7 0.00 0.00 0.00 1 1013.9
20260903032004 28 263 8.0 17.7 0.00 0.00 0.00 1 1013.8
20260903031904 28 264 9.7 22.5 0.00 0.00 0.00 1 1013.8
20260903031804 28 263 9.7 22.5 0.00 0.00 0.00 1 1013.9
20260903031704 28 265 9.7 22.5 0.00 0.00 0.00 1 1013.9
20260903031604 28 265 9.7 22.5 0.00 0.00 0.00 1 1013.9
20260903031504 28 266 8.0 22.5 0.00 0.00 0.00 1 1013.9
20260903031404 28 267 9.7 22.5 0.00 0.00 0.00 1 1013.9
20260903031304 28 267 9.7 22.5 0.00 0.00 0.00 1 1013.8
20260903031225 28 268 9.7 22.5 0.00 0.00 0.00 1 1013.8
20260903031125 28 266 8.0 22.5 0.00 0.00 0.00 22 1013.8
20260903031004 28 262 8.0 22.5 0.00 0.00 0.00 22 1013.7
20260903030904 29 258 8.0 22.5 0.00 0.00 0.00 22 1013.6
20260903030804 29 259 6.4 19.3 0.00 0.00 0.00 26 1013.6
20260903030704 29 260 6.4 19.3 0.00 0.00 0.00 30 1013.6
20260903030604 29 261 6.4 19.3 0.00 0.00 0.00 31 1013.5
20260903030504 29 262 6.4 19.3 0.00 0.00 0.00 34 1013.5
20260903030425 29 260 6.4 19.3 0.00 0.00 0.00 34 1013.6
20260903030325 29 259 6.4 19.3 0.00 0.00 0.00 35 1013.5
20260903030225 30 258 6.4 19.3 0.00 0.00 0.00 36 1013.4
20260903030104 30 259 6.4 19.3 0.00 0.00 0.00 37 1013.4
20260903030004 30 260 6.4 19.3 0.00 0.00 0.00 37 1013.3
20260903025904 30 261 4.8 11.3 0.00 0.00 0.00 38 1013.3
20260903025804 30 259 4.8 11.3 0.00 0.00 0.00 38 1013.3
20260903025704 30 255 4.8 9.7 0.00 0.00 0.00 38 1013.2
20260903025604 30 252 4.8 9.7 0.00 0.00 0.00 39 1013.2
20260903025525 30 250 4.8 9.7 0.00 0.00 0.00 39 1013.1
20260903025404 30 248 3.2 9.7 0.00 0.00 0.00 39 1013.0
20260903025325 30 248 3.2 9.7 0.00 0.00 0.00 39 1013.1
20260903025204 30 247 3.2 8.0 0.00 0.00 0.00 40 1013.0
20260903025104 30 247 3.2 8.0 0.00 0.00 0.00 40 1013.0
20260903025004 30 247 3.2 6.4 0.00 0.00 0.00 40 1013.0
20260903024925 30 248 3.2 9.7 0.00 0.00 0.00 40 1012.9
20260903024804 30 249 3.2 9.7 0.00 0.00 0.00 40 1012.8
20260903024704 30 250 3.2 9.7 0.00 0.00 0.00 41 1012.8
20260903024604 30 251 3.2 9.7 0.00 0.00 0.00 41 1012.7
20260903024525 30 251 3.2 9.7 0.00 0.00 0.00 41 1012.7
20260903024404 30 251 3.2 9.7 0.00 0.00 0.00 41 1012.8
20260903024304 30 252 4.8 9.7 0.00 0.00 0.00 41 1012.8
20260903024204 30 257 4.8 9.7 0.00 0.00 0.00 41 1012.8
20260903024104 30 257 4.8 9.7 0.00 0.00 0.00 41 1012.8
20260903024004 30 257 4.8 9.7 0.00 0.00 0.00 41 1012.7
20260903023925 30 257 4.8 17.7 0.00 0.00 0.00 42 1012.7
20260903023804 30 257 4.8 17.7 0.00 0.00 0.00 42 1012.7
20260903023704 30 257 4.8 17.7 0.00 0.00 0.00 42 1012.7
20260903023606 30 257 4.8 17.7 0.00 0.00 0.00 42 1012.6
20260903023504 30 256 6.4 17.7 0.00 0.00 0.00 42 1012.5
20260903023404 30 256 6.4 17.7 0.00 0.00 0.00 42 1012.5
20260903023304 30 257 6.4 17.7 0.00 0.00 0.00 42 1012.5
20260903023225 30 258 6.4 17.7 0.00 0.00 0.00 42 1012.6
20260903023104 30 260 6.4 17.7 0.00 0.00 0.00 42 1012.6
20260903023004 30 262 4.8 17.7 0.00 0.00 0.00 42 1012.7
20260903022904 30 271 4.8 16.1 0.00 0.00 0.00 42 1012.8
20260903022804 30 273 4.8 11.3 0.00 0.00 0.00 42 1012.8
20260903022704 30 270 4.8 11.3 0.00 0.00 0.00 42 1012.6
20260903022604 31 266 4.8 12.9 0.00 0.00 0.00 42 1012.5
20260903022504 31 259 4.8 12.9 0.00 0.00 0.00 42 1012.5
20260903022404 31 256 4.8 12.9 0.00 0.00 0.00 42 1012.4
20260903022325 31 254 4.8 12.9 0.00 0.00 0.00 42 1012.3
20260903022225 30 248 4.8 12.9 0.00 0.00 0.00 42 1012.3
20260903022104 30 241 4.8 12.9 0.00 0.00 0.00 42 1012.2
20260903022004 30 239 3.2 12.9 0.00 0.00 0.00 42 1012.2
20260903021925 30 233 3.2 12.9 0.00 0.00 0.00 43 1012.3
20260903021825 30 226 3.2 12.9 0.00 0.00 0.00 43 1012.3
20260903021725 30 225 1.6 12.9 0.00 0.00 0.00 43 1012.3
20260903021625 30 223 1.6 9.7 0.00 0.00 0.00 42 1012.3
20260903021504 30 239 0.0 8.0 0.00 0.00 0.00 43 1012.4
20260903021404 30 241 0.0 4.8 0.00 0.00 0.00 43 1012.2
20260903021304 30 242 0.0 1.6 0.00 0.00 0.00 43 1012.1
20260903021204 30 242 0.0 1.6 0.00 0.00 0.00 43 1012.0
20260903021104 31 242 0.0 1.6 0.00 0.00 0.00 43 1011.9
20260903021025 31 242 0.0 1.6 0.00 0.00 0.00 43 1011.9
20260903020904 31 242 0.0 1.6 0.00 0.00 0.00 43 1011.8
20260903020804 31 242 0.0 1.6 0.00 0.00 0.00 43 1011.7
20260903020704 31 242 0.0 1.6 0.00 0.00 0.00 43 1011.8
20260903020604 31 242 0.0 1.6 0.00 0.00 0.00 43 1011.8
20260903020504 31 242 0.0 1.6 0.00 0.00 0.00 43 1011.7
20260903020404 31 242 0.0 1.6 0.00 0.00 0.00 43 1011.7
20260903020325 31 242 0.0 1.6 0.00 0.00 0.00 43 1011.7
20260903020204 31 242 0.0 1.6 0.00 0.00 0.00 43 1011.7
20260903020104 31 242 0.0 1.6 0.00 0.00 0.00 43 1011.6
20260903020004 31 242 0.0 1.6 0.00 0.00 0.00 43 1011.7
20260903015904 31 242 0.0 1.6 0.00 0.00 0.00 43 1011.6
20260903015804 31 242 0.0 1.6 0.00 0.00 0.00 43 1011.6
20260903015704 31 242 0.0 1.6 0.00 0.00 0.00 43 1011.6
20260903015604 31 242 0.0 1.6 0.00 0.00 0.00 43 1011.6
20260903015504 31 242 0.0 1.6 0.00 0.00 0.00 43 1011.5
20260903015404 31 242 0.0 1.6 0.00 0.00 0.00 43 1011.5
20260903015325 31 242 0.0 1.6 0.00 0.00 0.00 43 1011.5
20260903015204 31 242 0.0 1.6 0.00 0.00 0.00 43 1011.5
20260903015104 31 242 0.0 1.6 0.00 0.00 0.00 43 1011.4
20260903015025 31 242 0.0 1.6 0.00 0.00 0.00 43 1011.5
20260903014904 31 242 0.0 1.6 0.00 0.00 0.00 43 1011.5
20260903014804 31 242 0.0 1.6 0.00 0.00 0.00 43 1011.5
20260903014704 31 242 0.0 1.6 0.00 0.00 0.00 43 1011.4
20260903014604 31 242 0.0 3.2 0.00 0.00 0.00 43 1011.4
20260903014504 31 242 0.0 4.8 0.00 0.00 0.00 43 1011.4
20260903014404 31 242 1.6 4.8 0.00 0.00 0.00 43 1011.4
20260903014304 31 242 1.6 4.8 0.00 0.00 0.00 43 1011.5
20260903014204 31 242 1.6 4.8 0.00 0.00 0.00 43 1011.4
20260903014104 31 242 1.6 4.8 0.00 0.00 0.00 43 1011.4
20260903014004 31 242 1.6 4.8 0.00 0.00 0.00 43 1011.4
20260903013904 31 242 1.6 4.8 0.00 0.00 0.00 43 1011.4
20260903013804 31 242 1.6 6.4 0.00 0.00 0.00 43 1011.4
20260903013704 31 242 1.6 6.4 0.00 0.00 0.00 43 1011.3
20260903013604 31 243 1.6 6.4 0.00 0.00 0.00 44 1011.3
20260903013504 31 243 1.6 6.4 0.00 0.00 0.00 44 1011.3
20260903013404 31 243 1.6 6.4 0.00 0.00 0.00 44 1011.3
20260903013304 31 243 1.6 6.4 0.00 0.00 0.00 44 1011.3
20260903013204 31 243 3.2 6.4 0.00 0.00 0.00 44 1011.3
20260903013104 31 243 3.2 6.4 0.00 0.00 0.00 44 1011.4
20260903013004 31 243 3.2 6.4 0.00 0.00 0.00 44 1011.3
20260903012904 31 244 3.2 6.4 0.00 0.00 0.00 44 1011.4
20260903012825 31 244 3.2 6.4 0.00 0.00 0.00 44 1011.4
20260903012704 31 244 3.2 6.4 0.00 0.00 0.00 44 1011.4
20260903012604 31 244 3.2 6.4 0.00 0.00 0.00 44 1011.4
20260903012525 31 244 3.2 6.4 0.00 0.00 0.00 44 1011.4
20260903012404 31 244 3.2 8.0 0.00 0.00 0.00 44 1011.4
20260903012306 31 245 3.2 8.0 0.00 0.00 0.00 44 1011.4
20260903012204 31 245 3.2 8.0 0.00 0.00 0.00 44 1011.4
20260903012104 31 245 3.2 9.7 0.00 0.00 0.00 44 1011.4
20260903012025 31 245 3.2 9.7 0.00 0.00 0.00 44 1011.4
20260903011904 31 245 3.2 9.7 0.00 0.00 0.00 44 1011.5
20260903011804 31 245 3.2 9.7 0.00 0.00 0.00 44 1011.5
20260903011704 31 245 3.2 9.7 0.00 0.00 0.00 44 1011.4
20260903011604 31 245 3.2 9.7 0.00 0.00 0.00 44 1011.5
20260903011525 31 245 3.2 9.7 0.00 0.00 0.00 44 1011.4
20260903011404 31 245 3.2 9.7 0.00 0.00 0.00 44 1011.4
20260903011325 31 245 4.8 9.7 0.00 0.00 0.00 44 1011.4
20260903011204 31 245 3.2 9.7 0.00 0.00 0.00 44 1011.5
20260903011104 31 245 3.2 8.0 0.00 0.00 0.00 44 1011.5
20260903011004 31 246 3.2 8.0 0.00 0.00 0.00 44 1011.5
20260903010904 31 246 3.2 8.0 0.00 0.00 0.00 44 1011.5
20260903010804 31 246 3.2 8.0 0.00 0.00 0.00 44 1011.5
20260903010704 31 247 3.2 8.0 0.00 0.00 0.00 44 1011.5
20260903010625 31 247 3.2 8.0 0.00 0.00 0.00 44 1011.5
20260903010504 31 248 3.2 8.0 0.00 0.00 0.00 44 1011.4
20260903010404 32 248 3.2 8.0 0.00 0.00 0.00 44 1011.5
20260903010304 32 249 3.2 8.0 0.00 0.00 0.00 44 1011.5
20260903010225 32 249 3.2 6.4 0.00 0.00 0.00 44 1011.5
20260903010104 32 250 3.2 9.7 0.00 0.00 0.00 43 1011.5
20260903010004 32 250 3.2 9.7 0.00 0.00 0.00 43 1011.5
20260903005904 32 251 4.8 9.7 0.00 0.00 0.00 43 1011.5
20260903005804 32 251 3.2 9.7 0.00 0.00 0.00 43 1011.6
20260903005704 32 252 3.2 9.7 0.00 0.00 0.00 43 1011.6
20260903005604 32 252 3.2 9.7 0.00 0.00 0.00 43 1011.6
20260903005504 32 252 3.2 9.7 0.00 0.00 0.00 43 1011.6
20260903005404 32 252 4.8 9.7 0.00 0.00 0.00 43 1011.6
20260903005306 32 252 4.8 11.3 0.00 0.00 0.00 43 1011.5
20260903005225 32 252 4.8 11.3 0.00 0.00 0.00 43 1011.6
20260903005104 32 252 4.8 11.3 0.00 0.00 0.00 43 1011.5
20260903005004 32 252 4.8 11.3 0.00 0.00 0.00 43 1011.5
20260903004925 32 251 4.8 11.3 0.00 0.00 0.00 43 1011.6
20260903004804 32 253 4.8 11.3 0.00 0.00 0.00 43 1011.5
20260903004704 32 252 4.8 11.3 0.00 0.00 0.00 43 1011.6
20260903004625 32 251 4.8 11.3 0.00 0.00 0.00 43 1011.6
20260903004525 32 250 4.8 11.3 0.00 0.00 0.00 43 1011.6
20260903004404 32 252 4.8 11.3 0.00 0.00 0.00 43 1011.6
20260903004304 32 254 4.8 9.7 0.00 0.00 0.00 42 1011.6
20260903004204 32 255 4.8 9.7 0.00 0.00 0.00 42 1011.6
20260903004104 32 259 4.8 11.3 0.00 0.00 0.00 42 1011.6
20260903004004 32 261 4.8 11.3 0.00 0.00 0.00 42 1011.6
20260903003904 32 262 4.8 11.3 0.00 0.00 0.00 42 1011.6
20260903003804 32 269 4.8 11.3 0.00 0.00 0.00 42 1011.6
20260903003704 32 276 4.8 11.3 0.00 0.00 0.00 42 1011.5
20260903003604 32 285 4.8 11.3 0.00 0.00 0.00 42 1011.5
20260903003504 32 292 4.8 11.3 0.00 0.00 0.00 42 1011.6
20260903003404 32 300 4.8 11.3 0.00 0.00 0.00 42 1011.5
20260903003304 32 305 4.8 11.3 0.00 0.00 0.00 42 1011.6
20260903003204 32 307 4.8 11.3 0.00 0.00 0.00 42 1011.5
20260903003104 32 309 4.8 11.3 0.00 0.00 0.00 42 1011.5
20260903003004 32 321 4.8 11.3 0.00 0.00 0.00 42 1011.5
20260903002904 32 332 4.8 11.3 0.00 0.00 0.00 42 1011.5
20260903002804 32 342 4.8 11.3 0.00 0.00 0.00 42 1011.5
20260903002704 32 348 4.8 11.3 0.00 0.00 0.00 42 1011.5
20260903002604 32 358 4.8 9.7 0.00 0.00 0.00 42 1011.5
20260903002504 32 9 4.8 12.9 0.00 0.00 0.00 42 1011.6
20260903002404 32 19 4.8 16.1 0.00 0.00 0.00 42 1011.5
20260903002306 32 25 6.4 16.1 0.00 0.00 0.00 42 1011.6
20260903002225 32 29 6.4 16.1 0.00 0.00 0.00 42 1011.5
20260903002125 32 34 4.8 16.1 0.00 0.00 0.00 42 1011.6
20260903002004 32 40 4.8 16.1 0.00 0.00 0.00 42 1011.6
20260903001904 32 43 4.8 16.1 0.00 0.00 0.00 42 1011.6
20260903001804 32 47 4.8 16.1 0.00 0.00 0.00 42 1011.6
20260903001725 32 48 4.8 16.1 0.00 0.00 0.00 42 1011.6
20260903001604 32 49 4.8 16.1 0.00 0.00 0.00 42 1011.6
20260903001504 32 53 4.8 16.1 0.00 0.00 0.00 42 1011.6
20260903001404 32 57 4.8 8.0 0.00 0.00 0.00 42 1011.6
20260903001304 32 58 4.8 8.0 0.00 0.00 0.00 42 1011.7
20260903001204 32 59 4.8 8.0 0.00 0.00 0.00 42 1011.6
20260903001104 32 58 4.8 8.0 0.00 0.00 0.00 43 1011.6
20260903001004 32 58 4.8 8.0 0.00 0.00 0.00 43 1011.6
20260903000904 32 57 4.8 8.0 0.00 0.00 0.00 43 1011.7
20260903000804 32 53 4.8 9.7 0.00 0.00 0.00 44 1011.6
20260903000704 32 51 4.8 11.3 0.00 0.00 0.00 44 1011.7
20260903000604 32 49 4.8 11.3 0.00 0.00 0.00 45 1011.7
20260903000525 32 48 6.4 11.3 0.00 0.00 0.00 45 1011.7
20260903000404 32 46 6.4 12.9 0.00 0.00 0.00 45 1011.7
20260903000304 32 46 6.4 12.9 0.00 0.00 0.00 45 1011.7
20260903000204 32 46 8.0 17.7 0.00 0.00 0.00 46 1011.7
20260903000104 32 48 8.0 17.7 0.00 0.00 0.00 46 1011.7
20260903000004 32 49 8.0 17.7 0.00 0.00 0.00 46 1011.7
20260902235904 32 50 8.0 17.7 0.00 0.00 0.00 46 1011.7
20260902235804 32 53 9.7 17.7 0.00 0.00 0.00 46 1011.7
20260902235704 32 55 9.7 17.7 0.00 0.00 0.00 47 1011.6
20260902235604 32 55 9.7 17.7 0.00 0.00 0.00 47 1011.7
20260902235504 32 56 9.7 17.7 0.00 0.00 0.00 47 1011.7
20260902235404 32 57 9.7 17.7 0.00 0.00 0.00 47 1011.7
20260902235305 32 59 9.7 17.7 0.00 0.00 0.00 47 1011.8
20260902235225 32 59 8.0 17.7 0.00 0.00 0.00 47 1011.8
20260902235125 32 59 8.0 16.1 0.00 0.00 0.00 47 1011.8
20260902235004 32 61 8.0 16.1 0.00 0.00 0.00 48 1011.8
20260902234904 32 63 8.0 20.9 0.00 0.00 0.00 48 1011.8
20260902234804 32 63 8.0 20.9 0.00 0.00 0.00 48 1011.7
20260902234704 32 66 8.0 20.9 0.00 0.00 0.00 48 1011.7
20260902234604 32 70 8.0 20.9 0.00 0.00 0.00 48 1011.8
20260902234504 32 73 8.0 20.9 0.00 0.00 0.00 48 1011.8
20260902234425 32 75 8.0 20.9 0.00 0.00 0.00 48 1011.8
20260902234304 32 76 8.0 20.9 0.00 0.00 0.00 48 1011.8
20260902234225 32 77 9.7 20.9 0.00 0.00 0.00 48 1011.8
20260902234104 32 76 9.7 20.9 0.00 0.00 0.00 47 1011.9
20260902234004 32 73 9.7 20.9 0.00 0.00 0.00 48 1012.0
20260902233904 32 71 9.7 19.3 0.00 0.00 0.00 48 1011.9
20260902233825 33 71 8.0 19.3 0.00 0.00 0.00 48 1011.9
20260902233704 33 70 8.0 17.7 0.00 0.00 0.00 46 1011.9
20260902233604 33 69 6.4 17.7 0.00 0.00 0.00 46 1011.9
20260902233525 33 68 6.4 16.1 0.00 0.00 0.00 46 1012.0
20260902233404 33 76 6.4 16.1 0.00 0.00 0.00 45 1012.0
20260902233304 34 77 6.4 16.1 0.00 0.00 0.00 45 1012.0
20260902233204 34 77 4.8 16.1 0.00 0.00 0.00 45 1012.0
20260902233104 34 80 3.2 16.1 0.00 0.00 0.00 45 1012.0
20260902233004 34 100 3.2 11.3 0.00 0.00 0.00 44 1012.0
20260902232904 34 130 1.6 9.7 0.00 0.00 0.00 44 1012.0
20260902232804 34 158 1.6 9.7 0.00 0.00 0.00 43 1012.1
20260902232704 35 179 3.2 9.7 0.00 0.00 0.00 43 1012.0
20260902232604 35 181 3.2 12.9 0.00 0.00 0.00 43 1012.0
20260902232504 35 186 3.2 12.9 0.00 0.00 0.00 43 1011.9
20260902232404 35 198 3.2 12.9 0.00 0.00 0.00 43 1011.9
20260902232306 35 201 3.2 12.9 0.00 0.00 0.00 43 1011.8
20260902232204 35 209 3.2 12.9 0.00 0.00 0.00 43 1011.7
20260902232104 35 215 4.8 12.9 0.00 0.00 0.00 43 1011.7
20260902232004 35 223 4.8 12.9 0.00 0.00 0.00 43 1011.7
20260902231904 35 227 4.8 12.9 0.00 0.00 0.00 43 1011.6
20260902231804 35 233 4.8 12.9 0.00 0.00 0.00 42 1011.6
20260902231704 35 238 4.8 12.9 0.00 0.00 0.00 42 1011.5
20260902231604 35 246 4.8 12.9 0.00 0.00 0.00 42 1011.6
20260902231525 35 250 4.8 12.9 0.00 0.00 0.00 42 1011.5
20260902231404 35 257 4.8 12.9 0.00 0.00 0.00 42 1011.4
20260902231304 35 261 4.8 12.9 0.00 0.00 0.00 41 1011.4
20260902231204 36 264 4.8 12.9 0.00 0.00 0.00 41 1011.3
20260902231125 36 264 3.2 12.9 0.00 0.00 0.00 41 1011.3
20260902231025 36 265 3.2 12.9 0.00 0.00 0.00 40 1011.3
20260902230904 36 293 3.2 12.9 0.00 0.00 0.00 39 1011.3
20260902230804 36 352 3.2 12.9 0.00 0.00 0.00 39 1011.3
20260902230704 37 34 1.6 12.9 0.00 0.00 0.00 38 1011.2
20260902230625 37 50 1.6 4.8 0.00 0.00 0.00 38 1011.2
20260902230504 37 50 1.6 6.4 0.00 0.00 0.00 38 1011.2
20260902230404 37 50 1.6 6.4 0.00 0.00 0.00 38 1011.1
20260902230306 37 51 1.6 6.4 0.00 0.00 0.00 38 1011.1
20260902230204 37 52 3.2 6.4 0.00 0.00 0.00 38 1011.1
20260902230104 37 53 3.2 8.0 0.00 0.00 0.00 38 1011.1
20260902230004 37 54 3.2 8.0 0.00 0.00 0.00 38 1011.0
20260902225904 37 54 4.8 9.7 0.00 0.00 0.00 38 1011.0
20260902225804 37 53 4.8 11.3 0.00 0.00 0.00 38 1011.1
20260902225704 37 53 4.8 11.3 0.00 0.00 0.00 38 1011.1
20260902225604 37 54 4.8 11.3 0.00 0.00 0.00 38 1011.0
20260902225504 37 54 4.8 11.3 0.00 0.00 0.00 38 1011.1
20260902225404 37 55 4.8 11.3 0.00 0.00 0.00 38 1011.0
20260902225306 37 55 4.8 11.3 0.00 0.00 0.00 38 1011.1
20260902225204 37 54 6.4 11.3 0.00 0.00 0.00 38 1011.1
20260902225104 37 55 4.8 11.3 0.00 0.00 0.00 38 1011.0
20260902225004 37 55 4.8 11.3 0.00 0.00 0.00 38 1011.0
20260902224904 37 56 4.8 11.3 0.00 0.00 0.00 37 1011.0
20260902224804 37 59 4.8 9.7 0.00 0.00 0.00 38 1011.0
20260902224704 37 60 4.8 9.7 0.00 0.00 0.00 37 1011.1
20260902224604 37 60 4.8 9.7 0.00 0.00 0.00 37 1011.0
20260902224504 37 61 4.8 9.7 0.00 0.00 0.00 37 1011.1
20260902224404 37 61 4.8 9.7 0.00 0.00 0.00 37 1011.0
20260902224304 37 64 4.8 9.7 0.00 0.00 0.00 37 1011.1
20260902224204 37 67 4.8 9.7 0.00 0.00 0.00 37 1011.0
20260902224125 37 68 4.8 9.7 0.00 0.00 0.00 37 1011.0
20260902224004 37 69 4.8 9.7 0.00 0.00 0.00 37 1011.0
20260902223904 37 69 3.2 9.7 0.00 0.00 0.00 36 1011.0
20260902223825 37 70 3.2 9.7 0.00 0.00 0.00 37 1011.0
20260902223704 37 74 3.2 9.7 0.00 0.00 0.00 36 1011.0
20260902223604 37 76 3.2 9.7 0.00 0.00 0.00 36 1011.0
20260902223504 38 80 3.2 9.7 0.00 0.00 0.00 36 1011.0
20260902223404 38 87 1.6 9.7 0.00 0.00 0.00 36 1011.0
20260902223325 38 91 1.6 6.4 0.00 0.00 0.00 36 1011.0
20260902223204 38 94 1.6 4.8 0.00 0.00 0.00 36 1011.0
20260902223104 38 97 1.6 4.8 0.00 0.00 0.00 36 1010.9
20260902223004 38 99 1.6 4.8 0.00 0.00 0.00 36 1011.0
20260902222904 38 101 1.6 4.8 0.00 0.00 0.00 35 1010.9
20260902222804 38 109 1.6 4.8 0.00 0.00 0.00 35 1010.9
20260902222725 38 114 1.6 4.8 0.00 0.00 0.00 35 1010.9
20260902222606 38 124 1.6 4.8 0.00 0.00 0.00 36 1011.0
20260902222504 38 133 1.6 4.8 0.00 0.00 0.00 36 1011.0
20260902222404 38 138 1.6 4.8 0.00 0.00 0.00 36 1011.0
20260902222306 37 146 1.6 6.4 0.00 0.00 0.00 36 1011.0
20260902222204 37 147 3.2 6.4 0.00 0.00 0.00 37 1011.0
20260902222104 37 149 3.2 11.3 0.00 0.00 0.00 37 1011.0
20260902222004 37 146 3.2 11.3 0.00 0.00 0.00 37 1011.1
20260902221904 37 142 3.2 11.3 0.00 0.00 0.00 37 1011.1
20260902221804 37 138 3.2 11.3 0.00 0.00 0.00 37 1011.1
20260902221704 37 131 3.2 11.3 0.00 0.00 0.00 37 1011.0
20260902221604 37 124 3.2 11.3 0.00 0.00 0.00 37 1011.0
20260902221504 37 115 4.8 11.3 0.00 0.00 0.00 37 1011.0
20260902221404 37 110 3.2 11.3 0.00 0.00 0.00 37 1011.0
20260902221304 37 104 3.2 11.3 0.00 0.00 0.00 37 1011.1
20260902221204 37 101 3.2 11.3 0.00 0.00 0.00 37 1011.1
20260902221104 37 86 3.2 9.7 0.00 0.00 0.00 37 1011.1
20260902221004 37 80 3.2 8.0 0.00 0.00 0.00 37 1011.1
20260902220904 37 76 3.2 8.0 0.00 0.00 0.00 37 1011.1
20260902220804 37 70 3.2 9.7 0.00 0.00 0.00 37 1011.1
20260902220704 37 64 3.2 9.7 0.00 0.00 0.00 37 1011.1
20260902220604 37 61 3.2 9.7 0.00 0.00 0.00 37 1011.0
20260902220504 37 61 3.2 9.7 0.00 0.00 0.00 37 1011.1
20260902220404 37 61 3.2 9.7 0.00 0.00 0.00 37 1011.1
20260902220325 37 61 3.2 9.7 0.00 0.00 0.00 37 1011.0
20260902220204 37 61 3.2 9.7 0.00 0.00 0.00 37 1011.1
20260902220104 37 60 3.2 9.7 0.00 0.00 0.00 37 1011.1
20260902220004 37 60 3.2 9.7 0.00 0.00 0.00 36 1011.1
20260902215904 37 60 1.6 9.7 0.00 0.00 0.00 37 1011.1
20260902215804 37 59 1.6 8.0 0.00 0.00 0.00 36 1011.1
20260902215704 37 58 1.6 8.0 0.00 0.00 0.00 36 1011.2
20260902215604 37 58 0.0 8.0 0.00 0.00 0.00 35 1011.2
20260902215504 37 57 0.0 3.2 0.00 0.00 0.00 36 1011.1
20260902215404 37 57 0.0 3.2 0.00 0.00 0.00 36 1011.2
20260902215306 37 57 0.0 3.2 0.00 0.00 0.00 36 1011.1
20260902215204 37 57 0.0 3.2 0.00 0.00 0.00 36 1011.2
20260902215104 37 57 1.6 3.2 0.00 0.00 0.00 36 1011.1
20260902215004 37 57 1.6 4.8 0.00 0.00 0.00 36 1011.2
20260902214904 37 57 1.6 4.8 0.00 0.00 0.00 36 1011.2
20260902214804 37 57 1.6 4.8 0.00 0.00 0.00 36 1011.2
20260902214704 37 57 1.6 4.8 0.00 0.00 0.00 36 1011.2
20260902214625 37 59 1.6 4.8 0.00 0.00 0.00 36 1011.2
20260902214504 37 64 3.2 8.0 0.00 0.00 0.00 36 1011.2
20260902214404 37 65 3.2 9.7 0.00 0.00 0.00 37 1011.3
20260902214304 37 67 3.2 9.7 0.00 0.00 0.00 36 1011.3
20260902214204 37 69 3.2 9.7 0.00 0.00 0.00 37 1011.3
20260902214104 37 71 3.2 9.7 0.00 0.00 0.00 37 1011.3
20260902214004 37 79 3.2 9.7 0.00 0.00 0.00 37 1011.3
20260902213904 37 80 3.2 9.7 0.00 0.00 0.00 37 1011.3
20260902213825 37 80 3.2 9.7 0.00 0.00 0.00 37 1011.3
20260902213704 37 80 4.8 9.7 0.00 0.00 0.00 37 1011.3
20260902213604 37 77 4.8 12.9 0.00 0.00 0.00 37 1011.3
20260902213504 37 74 4.8 12.9 0.00 0.00 0.00 37 1011.3
20260902213404 37 72 4.8 12.9 0.00 0.00 0.00 37 1011.3
20260902213304 37 71 4.8 12.9 0.00 0.00 0.00 37 1011.3
20260902213225 37 69 4.8 12.9 0.00 0.00 0.00 37 1011.3
20260902213104 37 68 4.8 12.9 0.00 0.00 0.00 37 1011.3
20260902213025 37 66 4.8 12.9 0.00 0.00 0.00 37 1011.3
20260902212925 37 62 4.8 12.9 0.00 0.00 0.00 37 1011.3
20260902212825 37 62 4.8 12.9 0.00 0.00 0.00 37 1011.4
20260902212704 37 61 3.2 12.9 0.00 0.00 0.00 36 1011.4
20260902212604 37 61 3.2 9.7 0.00 0.00 0.00 36 1011.4
20260902212504 37 64 3.2 9.7 0.00 0.00 0.00 37 1011.4
20260902212425 37 65 3.2 9.7 0.00 0.00 0.00 37 1011.4
20260902212306 37 66 1.6 6.4 0.00 0.00 0.00 36 1011.4
20260902212225 37 66 1.6 6.4 0.00 0.00 0.00 36 1011.4
20260902212104 37 67 1.6 6.4 0.00 0.00 0.00 37 1011.3
20260902212004 37 67 1.6 6.4 0.00 0.00 0.00 37 1011.4
20260902211904 37 67 1.6 6.4 0.00 0.00 0.00 36 1011.4
20260902211825 37 67 1.6 6.4 0.00 0.00 0.00 36 1011.3
20260902211704 37 67 1.6 6.4 0.00 0.00 0.00 36 1011.4
20260902211604 37 67 1.6 4.8 0.00 0.00 0.00 36 1011.4
20260902211504 37 67 1.6 3.2 0.00 0.00 0.00 37 1011.4
20260902211404 37 67 0.0 3.2 0.00 0.00 0.00 37 1011.4
20260902211304 37 68 0.0 3.2 0.00 0.00 0.00 37 1011.4
20260902211204 37 68 0.0 1.6 0.00 0.00 0.00 36 1011.4
20260902211104 37 68 0.0 4.8 0.00 0.00 0.00 37 1011.5
20260902211025 37 68 1.6 4.8 0.00 0.00 0.00 37 1011.4
20260902210925 37 67 1.6 4.8 0.00 0.00 0.00 37 1011.4
20260902210804 37 67 1.6 4.8 0.00 0.00 0.00 37 1011.4
20260902210704 37 67 1.6 4.8 0.00 0.00 0.00 37 1011.4
20260902210604 37 67 1.6 4.8 0.00 0.00 0.00 37 1011.4
20260902210504 37 67 1.6 4.8 0.00 0.00 0.00 37 1011.4
20260902210404 37 67 1.6 4.8 0.00 0.00 0.00 36 1011.4
20260902210304 37 67 1.6 4.8 0.00 0.00 0.00 36 1011.4
20260902210204 37 67 1.6 4.8 0.00 0.00 0.00 36 1011.5
20260902210104 37 66 1.6 3.2 0.00 0.00 0.00 36 1011.5
20260902210004 37 66 1.6 3.2 0.00 0.00 0.00 36 1011.6
20260902205904 37 66 1.6 4.8 0.00 0.00 0.00 36 1011.6
20260902205804 37 66 1.6 4.8 0.00 0.00 0.00 36 1011.6
20260902205704 37 66 1.6 4.8 0.00 0.00 0.00 36 1011.6
20260902205625 37 66 1.6 4.8 0.00 0.00 0.00 36 1011.7
20260902205504 37 66 1.6 4.8 0.00 0.00 0.00 36 1011.6
20260902205404 37 66 1.6 4.8 0.00 0.00 0.00 37 1011.7
20260902205306 37 66 1.6 4.8 0.00 0.00 0.00 36 1011.6
20260902205204 37 66 1.6 4.8 0.00 0.00 0.00 36 1011.7
20260902205104 37 66 1.6 4.8 0.00 0.00 0.00 36 1011.7
20260902205004 37 66 1.6 4.8 0.00 0.00 0.00 36 1011.8
20260902204904 37 66 1.6 4.8 0.00 0.00 0.00 36 1011.8
20260902204804 37 66 1.6 4.8 0.00 0.00 0.00 36 1011.8
20260902204704 37 66 1.6 4.8 0.00 0.00 0.00 36 1011.8
20260902204604 37 66 1.6 4.8 0.00 0.00 0.00 36 1011.8
20260902204504 37 66 1.6 4.8 0.00 0.00 0.00 35 1011.9
20260902204404 37 66 1.6 9.7 0.00 0.00 0.00 35 1011.8
20260902204304 38 59 3.2 11.3 0.00 0.00 0.00 35 1011.8
20260902204204 38 55 3.2 11.3 0.00 0.00 0.00 36 1011.8
20260902204104 38 50 3.2 11.3 0.00 0.00 0.00 35 1011.8
20260902204004 38 52 3.2 11.3 0.00 0.00 0.00 35 1011.9
20260902203904 38 53 3.2 11.3 0.00 0.00 0.00 35 1011.9
20260902203804 38 56 3.2 11.3 0.00 0.00 0.00 35 1011.9
20260902203725 38 59 4.8 11.3 0.00 0.00 0.00 35 1011.9
20260902203604 38 62 4.8 11.3 0.00 0.00 0.00 35 1012.0
20260902203504 38 66 4.8 11.3 0.00 0.00 0.00 35 1012.0
20260902203425 38 68 4.8 11.3 0.00 0.00 0.00 34 1012.0
20260902203304 38 77 3.2 11.3 0.00 0.00 0.00 35 1012.0
20260902203204 38 87 3.2 9.7 0.00 0.00 0.00 35 1011.9
20260902203104 38 100 3.2 8.0 0.00 0.00 0.00 35 1012.0
20260902203004 38 109 1.6 6.4 0.00 0.00 0.00 35 1012.0
20260902202904 38 112 1.6 6.4 0.00 0.00 0.00 34 1012.0
20260902202804 38 116 1.6 6.4 0.00 0.00 0.00 34 1012.0
20260902202704 38 121 1.6 6.4 0.00 0.00 0.00 34 1012.0
20260902202604 38 123 1.6 6.4 0.00 0.00 0.00 34 1012.1
20260902202504 38 131 1.6 4.8 0.00 0.00 0.00 35 1012.1
20260902202404 38 137 1.6 4.8 0.00 0.00 0.00 35 1012.1
20260902202325 38 140 1.6 4.8 0.00 0.00 0.00 35 1012.1
20260902202204 38 146 1.6 6.4 0.00 0.00 0.00 35 1012.1
20260902202104 38 149 1.6 6.4 0.00 0.00 0.00 35 1012.2
20260902202004 38 151 1.6 6.4 0.00 0.00 0.00 35 1012.2
20260902201925 38 152 1.6 6.4 0.00 0.00 0.00 35 1012.2
20260902201804 38 152 3.2 6.4 0.00 0.00 0.00 36 1012.2
20260902201704 38 145 3.2 6.4 0.00 0.00 0.00 36 1012.2
20260902201604 37 138 3.2 6.4 0.00 0.00 0.00 36 1012.2
20260902201504 37 133 3.2 6.4 0.00 0.00 0.00 37 1012.2
20260902201404 37 121 3.2 8.0 0.00 0.00 0.00 37 1012.2
20260902201304 37 110 3.2 8.0 0.00 0.00 0.00 37 1012.3
20260902201225 37 101 4.8 8.0 0.00 0.00 0.00 37 1012.3
20260902201125 37 90 4.8 9.7 0.00 0.00 0.00 37 1012.3
20260902201004 37 70 4.8 9.7 0.00 0.00 0.00 37 1012.3
20260902200904 37 64 4.8 9.7 0.00 0.00 0.00 37 1012.4
20260902200804 37 57 4.8 9.7 0.00 0.00 0.00 37 1012.4
20260902200704 37 49 3.2 9.7 0.00 0.00 0.00 37 1012.4
20260902200625 37 47 3.2 9.7 0.00 0.00 0.00 37 1012.4
20260902200504 37 47 4.8 9.7 0.00 0.00 0.00 36 1012.5
20260902200425 37 46 4.8 9.7 0.00 0.00 0.00 36 1012.5
20260902200304 37 43 4.8 9.7 0.00 0.00 0.00 36 1012.5
20260902200204 37 42 3.2 9.7 0.00 0.00 0.00 36 1012.4
20260902200104 37 51 3.2 9.7 0.00 0.00 0.00 37 1012.5
20260902200004 37 58 3.2 8.0 0.00 0.00 0.00 37 1012.5
20260902195904 37 56 3.2 8.0 0.00 0.00 0.00 37 1012.5
20260902195804 37 55 4.8 9.7 0.00 0.00 0.00 37 1012.5
20260902195704 37 55 4.8 9.7 0.00 0.00 0.00 37 1012.6
20260902195604 37 56 4.8 9.7 0.00 0.00 0.00 37 1012.6
20260902195504 37 58 4.8 9.7 0.00 0.00 0.00 37 1012.6
20260902195404 37 60 4.8 9.7 0.00 0.00 0.00 37 1012.6
20260902195306 37 62 4.8 9.7 0.00 0.00 0.00 37 1012.6
20260902195204 37 63 4.8 14.5 0.00 0.00 0.00 37 1012.7
20260902195104 37 60 4.8 14.5 0.00 0.00 0.00 36 1012.7
20260902195004 37 58 6.4 14.5 0.00 0.00 0.00 37 1012.7
20260902194904 37 55 6.4 14.5 0.00 0.00 0.00 36 1012.7
20260902194804 37 53 6.4 14.5 0.00 0.00 0.00 37 1012.7
20260902194704 37 49 6.4 14.5 0.00 0.00 0.00 37 1012.7
20260902194604 37 41 6.4 14.5 0.00 0.00 0.00 37 1012.8
20260902194504 37 35 6.4 14.5 0.00 0.00 0.00 36 1012.8
20260902194404 37 29 6.4 14.5 0.00 0.00 0.00 37 1012.9
20260902194306 37 25 6.4 14.5 0.00 0.00 0.00 36 1012.9
20260902194225 38 16 6.4 14.5 0.00 0.00 0.00 36 1012.8
20260902194104 38 360 4.8 11.3 0.00 0.00 0.00 36 1012.9
20260902194004 38 1 4.8 11.3 0.00 0.00 0.00 36 1012.9
20260902193904 38 2 4.8 11.3 0.00 0.00 0.00 36 1012.9
20260902193825 37 6 4.8 11.3 0.00 0.00 0.00 36 1012.9
20260902193704 37 10 4.8 11.3 0.00 0.00 0.00 36 1013.0
20260902193604 37 32 4.8 11.3 0.00 0.00 0.00 37 1013.0
20260902193504 37 45 4.8 11.3 0.00 0.00 0.00 37 1013.0
20260902193425 37 52 4.8 9.7 0.00 0.00 0.00 36 1013.0
20260902193304 37 62 4.8 9.7 0.00 0.00 0.00 37 1013.0
20260902193204 37 65 4.8 9.7 0.00 0.00 0.00 36 1013.0
20260902193125 37 67 4.8 9.7 0.00 0.00 0.00 37 1013.1
20260902193004 37 69 4.8 9.7 0.00 0.00 0.00 36 1013.1
20260902192904 37 69 4.8 9.7 0.00 0.00 0.00 36 1013.1
20260902192825 37 69 4.8 9.7 0.00 0.00 0.00 36 1013.1
20260902192704 37 70 4.8 9.7 0.00 0.00 0.00 36 1013.2
20260902192604 38 70 4.8 9.7 0.00 0.00 0.00 36 1013.2
20260902192504 38 73 3.2 9.7 0.00 0.00 0.00 35 1013.2
20260902192404 38 74 3.2 9.7 0.00 0.00 0.00 36 1013.2
20260902192306 38 70 3.2 9.7 0.00 0.00 0.00 35 1013.2
20260902192204 38 70 3.2 9.7 0.00 0.00 0.00 35 1013.3
20260902192104 38 70 3.2 9.7 0.00 0.00 0.00 35 1013.2
20260902192004 38 71 3.2 11.3 0.00 0.00 0.00 35 1013.3
20260902191904 38 71 3.2 11.3 0.00 0.00 0.00 36 1013.2
20260902191825 38 70 3.2 11.3 0.00 0.00 0.00 36 1013.3
20260902191704 37 67 3.2 11.3 0.00 0.00 0.00 36 1013.3
20260902191604 37 63 3.2 11.3 0.00 0.00 0.00 37 1013.2
20260902191504 37 32 3.2 11.3 0.00 0.00 0.00 36 1013.3
20260902191425 37 298 4.8 11.3 0.00 0.00 0.00 36 1013.3
20260902191304 37 270 4.8 11.3 0.00 0.00 0.00 38 1013.4
20260902191204 37 263 4.8 12.9 0.00 0.00 0.00 37 1013.4
20260902191104 37 272 4.8 16.1 0.00 0.00 0.00 37 1013.4
20260902191004 36 295 6.4 16.1 0.00 0.00 0.00 37 1013.4
20260902190904 36 311 6.4 16.1 0.00 0.00 0.00 37 1013.4
20260902190804 36 343 8.0 16.1 0.00 0.00 0.00 37 1013.4
20260902190704 36 7 8.0 16.1 0.00 0.00 0.00 37 1013.4
20260902190604 36 16 8.0 16.1 0.00 0.00 0.00 37 1013.4
20260902190504 36 27 8.0 16.1 0.00 0.00 0.00 37 1013.5
20260902190404 36 38 8.0 16.1 0.00 0.00 0.00 37 1013.5
20260902190304 36 43 8.0 16.1 0.00 0.00 0.00 37 1013.5
20260902190204 37 49 6.4 16.1 0.00 0.00 0.00 37 1013.6
20260902190104 37 52 6.4 14.5 0.00 0.00 0.00 37 1013.6
20260902190004 37 58 4.8 12.9 0.00 0.00 0.00 37 1013.6
20260902185904 37 57 4.8 12.9 0.00 0.00 0.00 37 1013.6
20260902185804 37 64 4.8 12.9 0.00 0.00 0.00 36 1013.6
20260902185704 37 79 3.2 12.9 0.00 0.00 0.00 36 1013.6
20260902185604 37 128 3.2 12.9 0.00 0.00 0.00 36 1013.7
20260902185506 37 170 3.2 9.7 0.00 0.00 0.00 36 1013.6
20260902185404 37 192 3.2 9.7 0.00 0.00 0.00 37 1013.6
20260902185306 37 199 3.2 9.7 0.00 0.00 0.00 37 1013.6
20260902185205 36 202 3.2 9.7 0.00 0.00 0.00 37 1013.6
20260902185104 36 205 4.8 9.7 0.00 0.00 0.00 38 1013.6
20260902185004 36 209 4.8 9.7 0.00 0.00 0.00 38 1013.6
20260902184904 36 210 4.8 9.7 0.00 0.00 0.00 37 1013.6
20260902184804 36 212 4.8 9.7 0.00 0.00 0.00 37 1013.7
20260902184704 36 214 4.8 9.7 0.00 0.00 0.00 38 1013.7
20260902184625 36 214 4.8 9.7 0.00 0.00 0.00 38 1013.7
20260902184504 36 216 4.8 8.0 0.00 0.00 0.00 38 1013.7
20260902184404 36 211 4.8 8.0 0.00 0.00 0.00 38 1013.8
20260902184304 36 204 4.8 8.0 0.00 0.00 0.00 37 1013.8
20260902184204 36 185 4.8 8.0 0.00 0.00 0.00 37 1013.8
20260902184125 36 139 4.8 8.0 0.00 0.00 0.00 37 1013.8
20260902184004 36 80 4.8 16.1 0.00 0.00 0.00 37 1013.9
20260902183904 36 71 6.4 20.9 0.00 0.00 0.00 37 1013.9
20260902183804 36 72 6.4 20.9 0.00 0.00 0.00 37 1013.9
20260902183704 36 71 6.4 20.9 0.00 0.00 0.00 37 1013.9
20260902183604 36 71 6.4 20.9 0.00 0.00 0.00 38 1013.9
20260902183504 36 68 8.0 20.9 0.00 0.00 0.00 37 1014.0
20260902183425 36 66 8.0 20.9 0.00 0.00 0.00 37 1014.0
20260902183304 36 65 8.0 20.9 0.00 0.00 0.00 38 1014.0
20260902183225 36 64 8.0 20.9 0.00 0.00 0.00 38 1014.0
20260902183104 36 63 6.4 20.9 0.00 0.00 0.00 37 1014.0
20260902183004 36 60 6.4 20.9 0.00 0.00 0.00 37 1014.0
20260902182904 36 54 6.4 16.1 0.00 0.00 0.00 38 1014.0
20260902182825 36 51 6.4 14.5 0.00 0.00 0.00 38 1014.0
20260902182704 36 51 4.8 14.5 0.00 0.00 0.00 37 1014.0
20260902182625 36 50 4.8 14.5 0.00 0.00 0.00 38 1014.1
20260902182504 36 52 4.8 14.5 0.00 0.00 0.00 37 1014.1
20260902182404 36 61 4.8 12.9 0.00 0.00 0.00 37 1014.1
20260902182306 36 69 3.2 12.9 0.00 0.00 0.00 37 1014.2
20260902182204 36 76 4.8 12.9 0.00 0.00 0.00 37 1014.2
20260902182106 36 81 4.8 12.9 0.00 0.00 0.00 37 1014.2
20260902182025 36 89 4.8 12.9 0.00 0.00 0.00 37 1014.3
20260902181904 36 104 4.8 12.9 0.00 0.00 0.00 37 1014.2
20260902181804 36 105 4.8 12.9 0.00 0.00 0.00 36 1014.2
20260902181704 36 102 4.8 12.9 0.00 0.00 0.00 37 1014.2
20260902181625 36 100 4.8 12.9 0.00 0.00 0.00 38 1014.2
20260902181504 36 91 4.8 12.9 0.00 0.00 0.00 38 1014.2
20260902181404 36 84 4.8 12.9 0.00 0.00 0.00 37 1014.3
20260902181304 36 77 4.8 12.9 0.00 0.00 0.00 37 1014.3
20260902181204 36 72 4.8 12.9 0.00 0.00 0.00 37 1014.3
20260902181104 36 66 4.8 12.9 0.00 0.00 0.00 37 1014.3
20260902181004 36 57 3.2 11.3 0.00 0.00 0.00 36 1014.4
20260902180925 36 52 3.2 11.3 0.00 0.00 0.00 36 1014.4
20260902180804 37 39 3.2 9.7 0.00 0.00 0.00 36 1014.4